M I D A S
Marine Information and Data Acquisition System
Tripno 1244 of the Zeeleeuw from 2007-04-10 06:39:03 to 2007-04-10 13:06:46
Back to CruiseResearch ActivitiesStationsMapUnderway DataData graphs

EquipmentUnitsComment
TimeDGPSUTC
LatitudeDGPSDM.mWGS84
LongitudeDGPSDM.mWGS84
TemperatureSBE03/SBE38deg celciusITS90
ConductivitySBE21S/mITS90
SalinitySBE21 Practical Salinity Units
ChlorophylAChelsea fluorimeterg/lCalibrated in Aceton
Missing or incorrect values are displayed as -999
Sea surface data collected by the RV Zeeleeuw from 2007-04-10 06:40:54 to 2007-04-10 13:10:20
                                                                                    Next 1000 lines
Time Latitude Longitude Temperature Conductivity Salinity ChlorophylA
2007-04-10 06:41:03 51°13.601 2°56.099 18.5229 0.006533 0.036281 -2.871232
2007-04-10 06:41:09 51°13.602 2°56.097 18.5897 0.006533 0.036282 -2.871232
2007-04-10 06:41:14 51°13.602 2°56.095 18.5927 0.006533 0.036282 -2.871232
2007-04-10 06:41:19 51°13.602 2°56.093 18.5694 0.006533 0.036282 -2.871232
2007-04-10 06:41:24 51°13.603 2°56.09 18.5199 0.006533 0.036282 -2.871232
2007-04-10 06:41:29 51°13.604 2°56.087 18.5144 0.00643 0.035843 -2.871232
2007-04-10 06:41:34 51°13.605 2°56.083 18.5527 0.00643 0.035843 -2.871232
2007-04-10 06:41:40 51°13.606 2°56.077 18.57 0.00643 0.035844 -2.871232
2007-04-10 06:41:46 51°13.608 2°56.071 18.5509 0.00643 0.035844 -2.871232
2007-04-10 06:41:51 51°13.609 2°56.065 18.5429 0.00643 0.035844 -2.871232
2007-04-10 06:41:57 51°13.611 2°56.057 18.5217 0.00643 0.035845 -2.871232
2007-04-10 06:42:03 51°13.613 2°56.049 18.5156 0.00643 0.035845 -2.871232
2007-04-10 06:42:08 51°13.614 2°56.042 18.5099 0.00643 0.035845 -2.871232
2007-04-10 06:42:13 51°13.616 2°56.035 18.503 0.006327 0.035407 -2.871232
2007-04-10 06:42:18 51°13.618 2°56.028 18.498 0.006327 0.035407 -2.871232
2007-04-10 06:42:23 51°13.62 2°56.02 18.4918 0.006327 0.035407 -2.871232
2007-04-10 06:42:28 51°13.622 2°56.013 18.48 0.006327 0.035407 -2.871232
2007-04-10 06:42:33 51°13.624 2°56.005 18.4574 0.006327 0.035407 -2.871232
2007-04-10 06:42:38 51°13.626 2°55.996 18.4565 0.006327 0.035408 -2.871232
2007-04-10 06:42:43 51°13.628 2°55.988 18.4438 0.006327 0.035408 -2.871232
2007-04-10 06:42:48 51°13.631 2°55.979 18.4439 0.006327 0.035408 -2.871232
2007-04-10 06:42:53 51°13.633 2°55.971 18.4384 0.006327 0.035408 -2.871232
2007-04-10 06:42:58 51°13.636 2°55.962 18.4341 0.006224 0.03497 -2.871232
2007-04-10 06:43:03 51°13.639 2°55.953 18.4151 0.006224 0.034971 -2.871232
2007-04-10 06:43:08 51°13.642 2°55.944 18.4106 0.006224 0.034971 -2.871232
2007-04-10 06:43:13 51°13.645 2°55.935 18.411 0.006224 0.034971 -2.871232
2007-04-10 06:43:18 51°13.648 2°55.927 18.7525 0.006224 0.034971 -2.871232
2007-04-10 06:43:23 51°13.651 2°55.918 19.7785 0.006224 0.034971 -2.871232
2007-04-10 06:43:28 51°13.654 2°55.909 22.0254 0.006224 0.034972 -2.871232
2007-04-10 06:43:33 51°13.657 2°55.9 22.6019 0.006224 0.034972 -2.871232
2007-04-10 06:43:38 51°13.66 2°55.891 22.6841 0.006224 0.034972 -2.871232
2007-04-10 06:43:43 51°13.663 2°55.882 22.7062 0.006121 0.034534 -2.871232
2007-04-10 06:43:48 51°13.666 2°55.874 22.6511 0.006121 0.034535 -2.871232
2007-04-10 06:43:53 51°13.668 2°55.866 22.6152 0.006121 0.034535 -2.871232
2007-04-10 06:43:58 51°13.67 2°55.857 22.4922 0.006121 0.034535 -2.871232
2007-04-10 06:44:03 51°13.672 2°55.85 22.5203 0.006121 0.034535 -2.871232
2007-04-10 06:44:08 51°13.674 2°55.842 22.4439 0.006121 0.034535 -2.871232
2007-04-10 06:44:12 51°13.676 2°55.836 22.4162 0.006121 0.034536 -2.871232
2007-04-10 06:44:17 51°13.678 2°55.829 22.3873 0.006121 0.034536 -2.871232
2007-04-10 06:44:22 51°13.679 2°55.821 22.3906 0.006121 0.034536 -2.871232
2007-04-10 06:44:27 51°13.681 2°55.815 22.3115 0.006121 0.034536 -2.871232
2007-04-10 06:44:32 51°13.682 2°55.808 22.3489 0.006018 0.034099 -2.871232
2007-04-10 06:44:36 51°13.683 2°55.802 22.2256 0.006018 0.0341 -2.871232
2007-04-10 06:44:41 51°13.684 2°55.796 22.2002 0.006018 0.0341 -2.871232
2007-04-10 06:44:46 51°13.684 2°55.789 22.1737 0.006018 0.0341 -2.871232
2007-04-10 06:44:51 51°13.685 2°55.783 22.1813 0.006018 0.0341 -2.871232
2007-04-10 06:44:56 51°13.685 2°55.777 22.1708 0.006018 0.034101 -2.871232
2007-04-10 06:45:00 51°13.686 2°55.772 22.116 0.006018 0.034101 -2.871232
2007-04-10 06:45:05 51°13.686 2°55.766 22.1169 0.006018 0.034101 -2.871232
2007-04-10 06:45:10 51°13.687 2°55.761 22.0634 0.006018 0.034102 -2.871232
2007-04-10 06:45:15 51°13.687 2°55.755 22.054 0.005915 0.033665 -2.871232
2007-04-10 06:45:19 51°13.687 2°55.751 22.0477 0.005915 0.033665 -2.871232
2007-04-10 06:45:24 51°13.687 2°55.746 22.0622 0.005915 0.033665 -2.871232
2007-04-10 06:45:29 51°13.687 2°55.741 22.0337 0.005915 0.033666 -2.871232
2007-04-10 06:45:34 51°13.686 2°55.737 22.0196 0.005915 0.033666 -2.871232
2007-04-10 06:45:39 51°13.686 2°55.733 21.9944 0.005915 0.033666 -2.871232
2007-04-10 06:45:44 51°13.686 2°55.73 22.0157 0.005915 0.033667 -2.871232
2007-04-10 06:45:49 51°13.686 2°55.727 21.9895 0.005915 0.033667 -2.871232
2007-04-10 06:45:54 51°13.686 2°55.724 21.9755 0.005915 0.033667 -2.871232
2007-04-10 06:45:59 51°13.686 2°55.722 21.9402 0.005915 0.033667 -2.871232
2007-04-10 06:46:03 51°13.686 2°55.721 21.9667 0.005813 0.033231 -2.871232
2007-04-10 06:46:09 51°13.686 2°55.719 21.9596 0.005813 0.033232 -2.871232
2007-04-10 06:46:14 51°13.686 2°55.717 21.9708 0.005813 0.033232 -2.871232
2007-04-10 06:46:19 51°13.686 2°55.716 21.9464 0.005813 0.033232 -2.871232
2007-04-10 06:46:24 51°13.686 2°55.716 21.9438 0.005813 0.033232 -2.871232
2007-04-10 06:46:29 51°13.687 2°55.715 21.927 0.005813 0.033233 -2.871232
2007-04-10 06:46:34 51°13.688 2°55.716 21.8922 0.005813 0.033233 -2.871232
2007-04-10 06:46:39 51°13.689 2°55.716 21.9104 0.005813 0.033233 -2.871232
2007-04-10 06:46:44 51°13.69 2°55.718 21.8785 0.005813 0.033233 -2.871232
2007-04-10 06:46:49 51°13.692 2°55.719 21.8914 0.005813 0.033233 -2.871232
2007-04-10 06:46:54 51°13.694 2°55.719 21.8562 0.005813 0.033234 -2.871232
2007-04-10 06:46:59 51°13.697 2°55.72 21.8704 0.00571 0.032798 -2.871232
2007-04-10 06:47:04 51°13.699 2°55.721 21.836 0.00571 0.032798 -2.871232
2007-04-10 06:47:09 51°13.703 2°55.721 21.8633 0.00571 0.032799 -2.871232
2007-04-10 06:47:14 51°13.706 2°55.721 21.8419 0.00571 0.032799 -2.871232
2007-04-10 06:47:19 51°13.71 2°55.72 21.8282 0.00571 0.032799 -2.871232
2007-04-10 06:47:24 51°13.713 2°55.719 21.8162 0.00571 0.032799 -2.871232
2007-04-10 06:47:29 51°13.718 2°55.716 21.8193 0.00571 0.0328 -2.871232
2007-04-10 06:47:34 51°13.723 2°55.713 21.8018 0.00571 0.0328 -2.871232
2007-04-10 06:47:39 51°13.728 2°55.71 21.8029 0.00571 0.0328 -2.871232
2007-04-10 06:47:44 51°13.733 2°55.706 21.7877 0.00571 0.0328 -2.871232
2007-04-10 06:47:49 51°13.739 2°55.701 21.7595 0.00571 0.0328 -2.871232
2007-04-10 06:47:54 51°13.745 2°55.697 21.7659 0.00571 0.032801 -2.871232
2007-04-10 06:47:59 51°13.752 2°55.692 21.7652 0.005607 0.032366 -2.871232
2007-04-10 06:48:04 51°13.759 2°55.686 21.7697 0.005607 0.032366 -2.871232
2007-04-10 06:48:09 51°13.766 2°55.68 21.7628 0.005607 0.032366 -2.871232
2007-04-10 06:48:14 51°13.774 2°55.674 21.7536 0.005607 0.032366 -2.871232
2007-04-10 06:48:19 51°13.782 2°55.667 21.7449 0.005607 0.032366 -2.871232
2007-04-10 06:48:24 51°13.791 2°55.661 21.7363 0.005607 0.032367 -2.871232
2007-04-10 06:48:29 51°13.8 2°55.655 21.7267 0.005607 0.032367 -2.871232
2007-04-10 06:48:34 51°13.809 2°55.648 21.7307 0.005607 0.032367 -2.871232
2007-04-10 06:48:39 51°13.819 2°55.641 21.7303 0.005607 0.032367 -2.871232
2007-04-10 06:48:44 51°13.829 2°55.634 21.7082 0.005607 0.032368 -2.871232
2007-04-10 06:48:49 51°13.839 2°55.627 21.7103 0.005607 0.032368 -2.871232
2007-04-10 06:48:54 51°13.849 2°55.62 21.7041 0.005607 0.032368 -2.871232
2007-04-10 06:48:59 51°13.86 2°55.612 21.6885 0.005607 0.032368 -2.871232
2007-04-10 06:49:04 51°13.871 2°55.605 21.6853 0.005504 0.031934 -2.871232
2007-04-10 06:49:09 51°13.882 2°55.598 21.6664 0.005504 0.031934 -2.871232
2007-04-10 06:49:14 51°13.893 2°55.59 21.6699 0.005504 0.031934 -2.871232
2007-04-10 06:49:19 51°13.904 2°55.583 21.6714 0.005504 0.031934 -2.871232
2007-04-10 06:49:24 51°13.915 2°55.575 21.6782 0.005504 0.031934 -2.871232
2007-04-10 06:49:29 51°13.926 2°55.567 21.6609 0.005504 0.031935 -2.871232
2007-04-10 06:49:34 51°13.937 2°55.559 21.6563 0.005504 0.031935 -2.871232
2007-04-10 06:49:39 51°13.949 2°55.551 21.6622 0.005504 0.031935 -2.871232
2007-04-10 06:49:44 51°13.96 2°55.543 21.6398 0.005504 0.031935 -2.871232
2007-04-10 06:49:49 51°13.971 2°55.535 21.6324 0.005504 0.031935 -2.871232
2007-04-10 06:49:54 51°13.983 2°55.527 21.6239 0.005504 0.031935 -2.871232
2007-04-10 06:49:59 51°13.994 2°55.519 21.6238 0.005504 0.031936 -2.871232
2007-04-10 06:50:04 51°14.005 2°55.511 21.6127 0.005504 0.031936 -2.871232
2007-04-10 06:50:09 51°14.017 2°55.503 21.6077 0.005504 0.031936 -2.871232
2007-04-10 06:50:14 51°14.028 2°55.495 21.6046 0.005401 0.031502 -2.871232
2007-04-10 06:50:19 51°14.04 2°55.487 21.5956 0.005401 0.031502 -2.871232
2007-04-10 06:50:24 51°14.051 2°55.479 21.579 0.005401 0.031503 -2.871232
2007-04-10 06:50:29 51°14.063 2°55.471 21.5713 0.005401 0.031503 -2.871232
2007-04-10 06:50:34 51°14.074 2°55.463 21.5611 0.005401 0.031503 -2.871232
2007-04-10 06:50:39 51°14.085 2°55.455 21.5706 0.005401 0.031503 -2.871232
2007-04-10 06:50:44 51°14.097 2°55.446 21.5577 0.005401 0.031503 -2.871232
2007-04-10 06:50:49 51°14.108 2°55.438 21.5471 0.005401 0.031503 -2.871232
2007-04-10 06:50:54 51°14.12 2°55.429 21.5269 0.005401 0.031504 -2.871232
2007-04-10 06:50:59 51°14.131 2°55.42 21.5253 0.005401 0.031504 -2.871232
2007-04-10 06:51:04 51°14.142 2°55.411 21.5276 0.005401 0.031504 -2.871232
2007-04-10 06:51:09 51°14.153 2°55.401 21.5178 0.005401 0.031504 -2.871232
2007-04-10 06:51:14 51°14.164 2°55.391 21.5032 0.005401 0.031505 -2.871232
2007-04-10 06:51:19 51°14.175 2°55.381 21.4965 0.005401 0.031505 -2.871232
2007-04-10 06:51:24 51°14.185 2°55.37 21.5009 0.005401 0.031505 -2.871232
2007-04-10 06:51:29 51°14.196 2°55.359 21.4999 0.005401 0.031505 -2.871232
2007-04-10 06:51:34 51°14.206 2°55.347 21.4945 0.005401 0.031505 -2.871232
2007-04-10 06:51:39 51°14.216 2°55.334 21.4699 0.005401 0.031505 -2.871232
2007-04-10 06:51:44 51°14.225 2°55.321 21.4776 0.005401 0.031506 -2.871232
2007-04-10 06:51:50 51°14.237 2°55.305 21.4742 0.005401 0.031506 -2.871232
2007-04-10 06:51:55 51°14.246 2°55.291 21.47 0.005298 0.031073 -2.871232
2007-04-10 06:52:01 51°14.256 2°55.274 21.4562 0.005298 0.031073 -2.871232
2007-04-10 06:52:06 51°14.265 2°55.259 21.4503 0.005298 0.031073 -2.871232
2007-04-10 06:52:11 51°14.274 2°55.244 21.4479 0.005298 0.031073 -2.871232
2007-04-10 06:52:16 51°14.282 2°55.229 21.443 0.005298 0.031073 -2.871232
2007-04-10 06:52:20 51°14.289 2°55.217 21.44 0.005298 0.031073 -2.871232
2007-04-10 06:52:25 51°14.297 2°55.201 21.4324 0.005298 0.031074 -2.871232
2007-04-10 06:52:30 51°14.305 2°55.186 21.4277 0.005298 0.031074 -2.871232
2007-04-10 06:52:35 51°14.314 2°55.17 21.4204 0.005298 0.031074 -2.871232
2007-04-10 06:52:39 51°14.32 2°55.158 21.4102 0.005298 0.031074 -2.871232
2007-04-10 06:52:44 51°14.329 2°55.142 21.4084 0.005298 0.031074 -2.871232
2007-04-10 06:52:49 51°14.337 2°55.127 21.3969 0.005298 0.031074 -2.871232
2007-04-10 06:52:54 51°14.345 2°55.112 21.3951 0.005298 0.031075 -2.871232
2007-04-10 06:52:59 51°14.353 2°55.096 21.3834 0.005298 0.031075 -2.871232
2007-04-10 06:53:03 51°14.36 2°55.083 21.385 0.005298 0.031075 -2.871232
2007-04-10 06:53:09 51°14.37 2°55.065 21.3769 0.005298 0.031075 -2.871232
2007-04-10 06:53:14 51°14.377 2°55.049 21.3659 0.005298 0.031075 -2.871232
2007-04-10 06:53:19 51°14.385 2°55.032 21.3625 0.005298 0.031075 -2.871232
2007-04-10 06:53:24 51°14.392 2°55.016 21.3552 0.005298 0.031076 -2.871232
2007-04-10 06:53:29 51°14.4 2°54.999 21.3498 0.005298 0.031076 -2.871232
2007-04-10 06:53:34 51°14.407 2°54.983 21.3417 0.005298 0.031076 -2.871232
2007-04-10 06:53:39 51°14.414 2°54.966 21.3365 0.005298 0.031076 -2.871232
2007-04-10 06:53:44 51°14.421 2°54.948 21.3291 0.005298 0.031076 -2.871232
2007-04-10 06:53:49 51°14.427 2°54.931 21.3242 0.005298 0.031076 -2.871232
2007-04-10 06:53:54 51°14.433 2°54.913 21.3166 0.005298 0.031077 -2.871232
2007-04-10 06:53:59 51°14.438 2°54.894 21.3156 0.005298 0.031077 -2.871232
2007-04-10 06:54:04 51°14.443 2°54.875 21.3044 0.005195 0.030644 -2.871232
2007-04-10 06:54:09 51°14.447 2°54.854 21.3061 0.005195 0.030644 -2.871232
2007-04-10 06:54:14 51°14.451 2°54.833 20.9004 0.005195 0.030645 -2.871232
2007-04-10 06:54:19 51°14.454 2°54.81 13.9146 0.005195 0.030645 -2.871232
2007-04-10 06:54:24 51°14.456 2°54.787 13.1635 0.005195 0.03065 -2.871232
2007-04-10 06:54:29 51°14.457 2°54.763 12.3896 0.005195 0.030654 -2.871232
2007-04-10 06:54:34 51°14.457 2°54.738 11.6909 0.671614 3.674974 -2.871232
2007-04-10 06:54:39 51°14.456 2°54.712 11.4151 1.951794 11.871733 -2.871232
2007-04-10 06:54:44 51°14.455 2°54.685 11.1428 2.948343 19.436417 -2.871232
2007-04-10 06:54:49 51°14.453 2°54.659 10.8773 2.948343 19.436417 -2.871232
2007-04-10 06:54:54 51°14.45 2°54.632 10.8235 3.162215 22.3883 -2.871232
2007-04-10 06:54:59 51°14.445 2°54.605 10.762 3.360552 25.132558 -2.871232
2007-04-10 06:55:04 51°14.44 2°54.578 10.6367 3.404364 26.496074 -2.871232
2007-04-10 06:55:09 51°14.434 2°54.552 10.6125 3.357059 26.685846 -2.871232
2007-04-10 06:55:14 51°14.428 2°54.525 10.5072 3.347955 27.045648 -2.871232
2007-04-10 06:55:19 51°14.421 2°54.499 10.5571 3.347955 27.045648 -2.871232
2007-04-10 06:55:23 51°14.416 2°54.477 10.5311 3.361627 27.596508 -2.871232
2007-04-10 06:55:29 51°14.407 2°54.446 10.4164 3.351382 27.770822 -2.871232
2007-04-10 06:55:34 51°14.4 2°54.419 10.3883 3.346105 27.923601 -2.871232
2007-04-10 06:55:39 51°14.393 2°54.393 10.3546 3.346314 28.057874 -2.871232
2007-04-10 06:55:44 51°14.385 2°54.367 10.3477 3.350043 28.20661 -2.871232
2007-04-10 06:55:49 51°14.378 2°54.341 10.339 3.350043 28.20661 -2.871232
2007-04-10 06:55:54 51°14.37 2°54.315 10.3203 3.350147 28.27242 -2.871232
2007-04-10 06:55:59 51°14.362 2°54.29 10.3389 3.352115 28.338963 -2.871232
2007-04-10 06:56:04 51°14.354 2°54.264 10.2868 3.354808 28.431792 -2.871232
2007-04-10 06:56:09 51°14.346 2°54.237 10.2527 3.356465 28.500279 -2.871232
2007-04-10 06:56:14 51°14.338 2°54.211 10.2458 3.3604 28.58329 -2.871232
2007-04-10 06:56:19 51°14.33 2°54.186 10.2234 3.3604 28.58329 -2.871232
2007-04-10 06:56:24 51°14.322 2°54.161 10.2073 3.361229 28.622822 -2.871232
2007-04-10 06:56:29 51°14.313 2°54.135 10.2016 3.359987 28.642893 -2.871232
2007-04-10 06:56:34 51°14.305 2°54.11 10.2303 3.360919 28.675589 -2.871232
2007-04-10 06:56:39 51°14.296 2°54.084 10.2462 3.358227 28.67697 -2.871232
2007-04-10 06:56:44 51°14.287 2°54.059 10.2123 3.356571 28.693245 -2.871232
2007-04-10 06:56:49 51°14.278 2°54.034 10.21 3.356571 28.693245 -2.871232
2007-04-10 06:56:54 51°14.27 2°54.009 10.2364 3.360816 28.752376 -2.871232
2007-04-10 06:56:59 51°14.261 2°53.983 10.2245 3.357193 28.739166 -2.871232
2007-04-10 06:57:04 51°14.253 2°53.958 10.1861 3.353466 28.71767 -2.871232
2007-04-10 06:57:09 51°14.244 2°53.933 10.1736 3.353466 28.724231 -2.871232
2007-04-10 06:57:14 51°14.236 2°53.908 10.1896 3.351085 28.712575 -2.871232
2007-04-10 06:57:19 51°14.227 2°53.883 10.1736 3.351085 28.712575 -2.871232
2007-04-10 06:57:24 51°14.218 2°53.858 10.1523 3.351292 28.718916 -2.871232
2007-04-10 06:57:29 51°14.21 2°53.833 10.1431 3.347462 28.680376 -2.871232
2007-04-10 06:57:34 51°14.201 2°53.808 10.1606 3.347566 28.687187 -2.871232
2007-04-10 06:57:39 51°14.192 2°53.784 10.1408 3.357712 28.802531 -2.871232
2007-04-10 06:57:44 51°14.184 2°53.759 10.1325 3.359265 28.827548 -2.871232
2007-04-10 06:57:49 51°14.175 2°53.734 10.123 3.359265 28.827548 -2.871232
2007-04-10 06:57:54 51°14.167 2°53.709 10.1253 3.359161 28.838299 -2.871232
2007-04-10 06:57:59 51°14.158 2°53.685 10.1217 3.35823 28.842648 -2.871232
2007-04-10 06:58:04 51°14.149 2°53.66 10.1033 3.357816 28.851193 -2.871232
2007-04-10 06:58:09 51°14.14 2°53.635 10.1058 3.357609 28.855102 -2.871232
2007-04-10 06:58:14 51°14.132 2°53.61 10.1304 3.357816 28.865896 -2.871232
2007-04-10 06:58:19 51°14.123 2°53.586 10.1185 3.357816 28.865896 -2.871232
2007-04-10 06:58:24 51°14.115 2°53.561 10.0999 3.35823 28.877198 -2.871232
2007-04-10 06:58:29 51°14.106 2°53.537 10.0925 3.358541 28.886783 -2.871232
2007-04-10 06:58:34 51°14.098 2°53.512 10.1129 3.359369 28.902043 -2.871232
2007-04-10 06:58:39 51°14.09 2°53.487 10.0891 3.359991 28.915338 -2.871232
2007-04-10 06:58:44 51°14.081 2°53.463 10.0956 3.360094 28.919275 -2.871232
2007-04-10 06:58:49 51°14.073 2°53.438 10.0925 3.360094 28.919275 -2.871232
2007-04-10 06:58:54 51°14.064 2°53.414 10.0788 3.360819 28.930613 -2.871232
2007-04-10 06:58:59 51°14.056 2°53.389 10.0816 3.362061 28.952065 -2.871232
2007-04-10 06:59:04 51°14.047 2°53.365 10.0656 3.362165 28.958226 -2.871232
2007-04-10 06:59:09 51°14.038 2°53.34 10.0838 3.362476 28.964887 -2.871232
2007-04-10 06:59:14 51°14.03 2°53.315 10.0614 3.3632 28.977722 -2.871232
2007-04-10 06:59:19 51°14.021 2°53.29 10.0733 3.3632 28.977722 -2.871232
2007-04-10 06:59:24 51°14.013 2°53.266 10.0712 3.363511 28.983648 -2.871232
2007-04-10 06:59:29 51°14.004 2°53.241 10.0617 3.364132 28.996984 -2.871232
2007-04-10 06:59:34 51°13.996 2°53.216 10.057 3.364236 29.003901 -2.871232
2007-04-10 06:59:39 51°13.987 2°53.192 10.0616 3.363925 29.003899 -2.871232
2007-04-10 06:59:44 51°13.979 2°53.167 10.0607 3.364443 29.014776 -2.871232
2007-04-10 06:59:49 51°13.969 2°53.143 10.066 3.364443 29.014776 -2.871232
2007-04-10 06:59:54 51°13.961 2°53.117 10.0448 3.330072 28.685906 -2.871232
2007-04-10 06:59:59 51°13.952 2°53.093 10.0531 3.36258 28.998455 -2.871232
2007-04-10 07:00:04 51°13.944 2°53.068 10.0441 3.365064 29.025905 -2.871232
2007-04-10 07:00:09 51°13.935 2°53.044 10.0467 3.365065 29.035556 -2.871232
2007-04-10 07:00:14 51°13.927 2°53.019 10.0422 3.364961 29.034566 -2.871232
2007-04-10 07:00:19 51°13.918 2°52.994 10.0383 3.364961 29.034566 -2.871232
2007-04-10 07:00:24 51°13.91 2°52.969 10.031 3.365168 29.03506 -2.871232
2007-04-10 07:00:29 51°13.901 2°52.945 10.0298 3.365893 29.047188 -2.871232
2007-04-10 07:00:34 51°13.893 2°52.92 10.0273 3.366514 29.056844 -2.871232
2007-04-10 07:00:39 51°13.884 2°52.895 10.0357 3.367032 29.066256 -2.871232
2007-04-10 07:00:44 51°13.876 2°52.871 10.0352 3.364029 29.041258 -2.871232
2007-04-10 07:00:49 51°13.867 2°52.846 10.0265 3.364029 29.041258 -2.871232
2007-04-10 07:00:54 51°13.859 2°52.821 10.0264 3.363201 29.037052 -2.871232
2007-04-10 07:00:59 51°13.85 2°52.796 10.0306 3.363719 29.046464 -2.871232
2007-04-10 07:01:04 51°13.842 2°52.772 10.0317 3.364754 29.061576 -2.871232
2007-04-10 07:01:09 51°13.833 2°52.747 10.024 3.365168 29.067027 -2.871232
2007-04-10 07:01:14 51°13.825 2°52.722 10.0233 3.363512 29.052664 -2.871232
2007-04-10 07:01:19 51°13.816 2°52.698 10.0283 3.363512 29.052664 -2.871232
2007-04-10 07:01:23 51°13.809 2°52.677 10.0334 3.365169 29.070749 -2.871232
2007-04-10 07:01:29 51°13.799 2°52.648 10.0302 3.363926 29.060347 -2.871232
2007-04-10 07:01:34 51°13.791 2°52.623 10.0273 3.370966 29.126991 -2.871232
2007-04-10 07:01:39 51°13.782 2°52.599 10.0243 3.371173 29.130466 -2.871232
2007-04-10 07:01:44 51°13.773 2°52.573 10.0258 3.371277 29.133695 -2.871232
2007-04-10 07:01:49 51°13.764 2°52.549 10.0256 3.371277 29.133695 -2.871232
2007-04-10 07:01:54 51°13.756 2°52.524 10.0225 3.370656 29.12924 -2.871232
2007-04-10 07:01:59 51°13.747 2°52.5 10.0287 3.370552 29.127502 -2.871232
2007-04-10 07:02:04 51°13.739 2°52.475 10.0356 3.370759 29.129485 -2.871232
2007-04-10 07:02:09 51°13.73 2°52.45 10.0278 3.370966 29.133706 -2.871232
2007-04-10 07:02:14 51°13.721 2°52.425 10.0341 3.37107 29.13619 -2.871232
2007-04-10 07:02:19 51°13.713 2°52.401 10.0235 3.37107 29.13619 -2.871232
2007-04-10 07:02:24 51°13.704 2°52.376 10.0206 3.370966 29.135945 -2.871232
2007-04-10 07:02:29 51°13.696 2°52.351 10.0339 3.36579 29.085632 -2.871232
2007-04-10 07:02:34 51°13.687 2°52.326 10.0284 3.365272 29.079187 -2.871232
2007-04-10 07:02:39 51°13.679 2°52.302 10.0261 3.364755 29.07572 -2.871232
2007-04-10 07:02:44 51°13.67 2°52.277 10.0265 3.364858 29.075967 -2.871232
2007-04-10 07:02:49 51°13.662 2°52.252 10.0188 3.364858 29.075967 -2.871232
2007-04-10 07:02:54 51°13.653 2°52.228 10.0204 3.371795 29.143131 -2.871232
2007-04-10 07:02:59 51°13.644 2°52.203 10.0196 3.372209 29.149337 -2.871232
2007-04-10 07:03:04 51°13.636 2°52.178 10.0196 3.372416 29.150573 -2.871232
2007-04-10 07:03:09 51°13.627 2°52.153 10.0145 3.37283 29.153793 -2.871232
2007-04-10 07:03:14 51°13.619 2°52.128 10.0313 3.373037 29.160258 -2.871232
2007-04-10 07:03:19 51°13.61 2°52.104 10.0158 3.373037 29.160258 -2.871232
2007-04-10 07:03:24 51°13.602 2°52.079 10.0157 3.373451 29.167962 -2.871232
2007-04-10 07:03:29 51°13.593 2°52.055 10.0073 3.355644 28.999659 -2.871232
2007-04-10 07:03:34 51°13.584 2°52.031 10.0059 3.371898 29.156073 -2.871232
2007-04-10 07:03:39 51°13.576 2°52.006 10.0067 3.374073 29.177652 -2.871232
2007-04-10 07:03:44 51°13.567 2°51.982 10.0077 3.374176 29.177148 -2.871232
2007-04-10 07:03:49 51°13.559 2°51.957 10.0096 3.374176 29.177148 -2.871232
2007-04-10 07:03:54 51°13.55 2°51.933 10.0089 3.37459 29.182612 -2.871232
2007-04-10 07:03:59 51°13.541 2°51.908 10.0051 3.375004 29.190321 -2.871232
2007-04-10 07:04:04 51°13.533 2°51.883 10.002 3.375626 29.200765 -2.871232
2007-04-10 07:04:09 51°13.524 2°51.859 10.0058 3.375729 29.204752 -2.871232
2007-04-10 07:04:14 51°13.516 2°51.834 9.9987 3.37604 29.208479 -2.871232
2007-04-10 07:04:19 51°13.507 2°51.81 10.0073 3.37604 29.208479 -2.871232
2007-04-10 07:04:24 51°13.499 2°51.785 10.0076 3.376143 29.21022 -2.871232
2007-04-10 07:04:29 51°13.49 2°51.761 9.9958 3.376661 29.215932 -2.871232
2007-04-10 07:04:34 51°13.482 2°51.736 10.0004 3.377075 29.220652 -2.871232
2007-04-10 07:04:39 51°13.473 2°51.712 9.9986 3.376972 29.220409 -2.871232
2007-04-10 07:04:44 51°13.465 2°51.687 9.9964 3.377386 29.226628 -2.871232
2007-04-10 07:04:49 51°13.456 2°51.663 9.995 3.377386 29.226628 -2.871232
2007-04-10 07:04:54 51°13.448 2°51.638 9.9896 3.377489 29.227621 -2.871232
2007-04-10 07:04:59 51°13.439 2°51.613 9.9926 3.377904 29.232342 -2.871232
2007-04-10 07:05:04 51°13.431 2°51.589 10.0009 3.3778 29.233598 -2.871232
2007-04-10 07:05:09 51°13.422 2°51.564 9.9953 3.378007 29.236334 -2.871232
2007-04-10 07:05:14 51°13.414 2°51.54 9.9983 3.3778 29.236598 -2.871232
2007-04-10 07:05:19 51°13.405 2°51.515 9.997 3.3778 29.236598 -2.871232
2007-04-10 07:05:24 51°13.397 2°51.491 9.9938 3.378007 29.240084 -2.871232
2007-04-10 07:05:29 51°13.388 2°51.466 9.9966 3.3778 29.241098 -2.871232
2007-04-10 07:05:34 51°13.38 2°51.441 9.9955 3.3778 29.241098 -2.871232
2007-04-10 07:05:39 51°13.371 2°51.417 10.0039 3.377386 29.236375 -2.871232
2007-04-10 07:05:44 51°13.363 2°51.392 9.9998 3.377593 29.237611 -2.871232
2007-04-10 07:05:49 51°13.354 2°51.367 9.9993 3.377593 29.237611 -2.871232
2007-04-10 07:05:54 51°13.346 2°51.342 10.0001 3.377697 29.239355 -2.871232
2007-04-10 07:05:59 51°13.338 2°51.318 10.0039 3.377386 29.237125 -2.871232
2007-04-10 07:06:04 51°13.329 2°51.293 10.0007 3.3778 29.240348 -2.871232
2007-04-10 07:06:09 51°13.32 2°51.269 9.9972 3.378214 29.24432 -2.871232
2007-04-10 07:06:14 51°13.312 2°51.244 10.002 3.378732 29.248536 -2.871232
2007-04-10 07:06:19 51°13.303 2°51.219 10.0008 3.378732 29.248536 -2.871232
2007-04-10 07:06:24 51°13.295 2°51.194 10.0032 3.379457 29.255488 -2.871232
2007-04-10 07:06:29 51°13.286 2°51.17 9.9964 3.37956 29.257232 -2.871232
2007-04-10 07:06:34 51°13.278 2°51.145 10.0022 3.379974 29.260454 -2.871232
2007-04-10 07:06:39 51°13.269 2°51.12 10.003 3.380078 29.262198 -2.871232
2007-04-10 07:06:44 51°13.261 2°51.095 10.0055 3.380285 29.264184 -2.871232
2007-04-10 07:06:49 51°13.252 2°51.071 10.007 3.380285 29.264184 -2.871232
2007-04-10 07:06:54 51°13.244 2°51.046 10.0071 3.380596 29.267164 -2.871232
2007-04-10 07:06:59 51°13.235 2°51.021 10.0125 3.380492 29.266171 -2.871232
2007-04-10 07:07:04 51°13.227 2°50.997 10.0053 3.380803 29.269901 -2.871232
2007-04-10 07:07:09 51°13.218 2°50.972 10.0043 3.380699 29.268908 -2.871232
2007-04-10 07:07:14 51°13.209 2°50.947 10.0085 3.381217 29.272373 -2.871232
2007-04-10 07:07:19 51°13.201 2°50.922 10.0025 3.381217 29.272373 -2.871232
2007-04-10 07:07:24 51°13.192 2°50.897 10.0051 3.38101 29.269635 -2.871232
2007-04-10 07:07:29 51°13.184 2°50.873 10.012 3.381527 29.273099 -2.871232
2007-04-10 07:07:34 51°13.175 2°50.848 10.0125 3.381527 29.273099 -2.871232
2007-04-10 07:07:39 51°13.166 2°50.823 10.0106 3.382149 29.27981 -2.871232
2007-04-10 07:07:44 51°13.158 2°50.798 10.0105 3.382252 29.281554 -2.871232
2007-04-10 07:07:49 51°13.149 2°50.773 10.0085 3.382252 29.281554 -2.871232
2007-04-10 07:07:54 51°13.141 2°50.748 10.0073 3.382356 29.282548 -2.871232
2007-04-10 07:07:59 51°13.132 2°50.723 10.0105 3.382459 29.283541 -2.871232
2007-04-10 07:08:04 51°13.123 2°50.698 10.0115 3.382563 29.282281 -2.871232
2007-04-10 07:08:09 51°13.114 2°50.673 10.017 3.38277 29.283516 -2.871232
2007-04-10 07:08:14 51°13.106 2°50.648 10.0146 3.382873 29.284509 -2.871232
2007-04-10 07:08:19 51°13.097 2°50.624 10.0145 3.382873 29.284509 -2.871232
2007-04-10 07:08:24 51°13.088 2°50.599 10.0164 3.382873 29.28526 -2.871232
2007-04-10 07:08:29 51°13.079 2°50.574 10.012 3.382873 29.286011 -2.871232
2007-04-10 07:08:34 51°13.071 2°50.549 10.006 3.38308 29.287247 -2.871232
2007-04-10 07:08:39 51°13.062 2°50.524 10.0099 3.382873 29.283758 -2.871232
2007-04-10 07:08:44 51°13.054 2°50.499 10.0139 3.38308 29.284993 -2.871232
2007-04-10 07:08:49 51°13.045 2°50.474 10.006 3.38308 29.284993 -2.871232
2007-04-10 07:08:54 51°13.036 2°50.449 10.008 3.383495 29.288966 -2.871232
2007-04-10 07:08:59 51°13.028 2°50.424 10.0099 3.383598 29.289959 -2.871232
2007-04-10 07:09:04 51°13.019 2°50.399 10.0082 3.38277 29.283516 -2.871232
2007-04-10 07:09:09 51°13.01 2°50.374 10.012 3.383184 29.288991 -2.871232
2007-04-10 07:09:14 51°13.001 2°50.349 10.014 3.384219 29.298173 -2.871232
2007-04-10 07:09:19 51°12.993 2°50.324 10.0156 3.384219 29.298173 -2.871232
2007-04-10 07:09:24 51°12.984 2°50.3 10.0172 3.384634 29.304401 -2.871232
2007-04-10 07:09:29 51°12.975 2°50.275 10.0114 3.384737 29.305394 -2.871232
2007-04-10 07:09:34 51°12.966 2°50.25 10.0091 3.384944 29.308133 -2.871232
2007-04-10 07:09:39 51°12.957 2°50.225 10.0154 3.384944 29.308133 -2.871232
2007-04-10 07:09:44 51°12.949 2°50.2 10.0135 3.384944 29.306629 -2.871232
2007-04-10 07:09:49 51°12.94 2°50.175 10.0095 3.384944 29.306629 -2.871232
2007-04-10 07:09:54 51°12.931 2°50.15 10.0123 3.384944 29.305126 -2.871232
2007-04-10 07:09:59 51°12.922 2°50.126 10.012 3.385358 29.307596 -2.871232
2007-04-10 07:10:04 51°12.914 2°50.1 10.0148 3.385565 29.311086 -2.871232
2007-04-10 07:10:09 51°12.905 2°50.075 10.0118 3.385669 29.312079 -2.871232
2007-04-10 07:10:14 51°12.896 2°50.051 10.0176 3.385979 29.315059 -2.871232
2007-04-10 07:10:19 51°12.887 2°50.026 10.0149 3.385979 29.315059 -2.871232
2007-04-10 07:10:24 51°12.879 2°50 10.0212 3.38629 29.318792 -2.871232
2007-04-10 07:10:29 51°12.87 2°49.976 10.0124 3.386704 29.323517 -2.871232
2007-04-10 07:10:34 51°12.862 2°49.95 10.0159 3.386911 29.324752 -2.871232
2007-04-10 07:10:39 51°12.853 2°49.926 10.0166 3.387325 29.328726 -2.871232
2007-04-10 07:10:44 51°12.844 2°49.901 10.0236 3.387532 29.330713 -2.871232
2007-04-10 07:10:49 51°12.835 2°49.875 10.0171 3.387532 29.330713 -2.871232
2007-04-10 07:10:54 51°12.826 2°49.851 10.0168 3.38805 29.334928 -2.871232
2007-04-10 07:10:59 51°12.818 2°49.825 10.0179 3.38805 29.334175 -2.871232
2007-04-10 07:11:04 51°12.809 2°49.8 10.0191 3.388464 29.338902 -2.871232
2007-04-10 07:11:09 51°12.801 2°49.775 10.019 3.388464 29.338902 -2.871232
2007-04-10 07:11:14 51°12.792 2°49.75 10.0178 3.388464 29.337397 -2.871232
2007-04-10 07:11:19 51°12.783 2°49.725 10.0201 3.388464 29.337397 -2.871232
2007-04-10 07:11:24 51°12.774 2°49.7 10.0186 3.388464 29.337397 -2.871232
2007-04-10 07:11:29 51°12.766 2°49.675 10.0237 3.388568 29.33839 -2.871232
2007-04-10 07:11:34 51°12.757 2°49.65 10.0218 3.388464 29.337397 -2.871232
2007-04-10 07:11:39 51°12.748 2°49.625 10.0228 3.388568 29.337637 -2.871232
2007-04-10 07:11:44 51°12.74 2°49.6 10.0224 3.388671 29.339383 -2.871232
2007-04-10 07:11:49 51°12.731 2°49.575 10.0268 3.388671 29.339383 -2.871232
2007-04-10 07:11:54 51°12.723 2°49.549 10.0272 3.388878 29.340618 -2.871232
2007-04-10 07:11:59 51°12.714 2°49.524 10.0299 3.388878 29.339865 -2.871232
2007-04-10 07:12:04 51°12.705 2°49.499 10.0251 3.388878 29.339113 -2.871232
2007-04-10 07:12:09 51°12.696 2°49.474 10.0291 3.388982 29.340106 -2.871232
2007-04-10 07:12:14 51°12.688 2°49.449 10.0333 3.388982 29.339353 -2.871232
2007-04-10 07:12:19 51°12.679 2°49.424 10.0266 3.388982 29.339353 -2.871232
2007-04-10 07:12:24 51°12.67 2°49.399 10.0316 3.389085 29.338842 -2.871232
2007-04-10 07:12:29 51°12.662 2°49.374 10.0307 3.388775 29.334357 -2.871232
2007-04-10 07:12:34 51°12.653 2°49.349 10.0253 3.389292 29.338571 -2.871232
2007-04-10 07:12:39 51°12.645 2°49.323 10.0279 3.389189 29.337578 -2.871232
2007-04-10 07:12:44 51°12.636 2°49.298 10.0343 3.3895 29.339053 -2.871232
2007-04-10 07:12:49 51°12.627 2°49.273 10.03 3.3895 29.339053 -2.871232
2007-04-10 07:12:54 51°12.619 2°49.248 10.0306 3.38981 29.342032 -2.871232
2007-04-10 07:12:59 51°12.61 2°49.223 10.027 3.390017 29.344019 -2.871232
2007-04-10 07:13:04 51°12.602 2°49.197 10.0274 3.390224 29.346758 -2.871232
2007-04-10 07:13:09 51°12.592 2°49.173 10.0255 3.389914 29.344531 -2.871232
2007-04-10 07:13:14 51°12.584 2°49.147 10.0274 3.390431 29.348744 -2.871232
2007-04-10 07:13:19 51°12.575 2°49.122 10.024 3.390431 29.348744 -2.871232
2007-04-10 07:13:24 51°12.567 2°49.097 10.0248 3.390638 29.349978 -2.871232
2007-04-10 07:13:29 51°12.558 2°49.071 10.0252 3.390742 29.352477 -2.871232
2007-04-10 07:13:34 51°12.55 2°49.046 10.0245 3.390846 29.354223 -2.871232
2007-04-10 07:13:39 51°12.541 2°49.021 10.0251 3.390846 29.354223 -2.871232
2007-04-10 07:13:44 51°12.532 2°48.996 10.0273 3.391053 29.357716 -2.871232
2007-04-10 07:13:49 51°12.523 2°48.971 10.0193 3.391053 29.357716 -2.871232
2007-04-10 07:13:54 51°12.515 2°48.945 10.0192 3.390949 29.355969 -2.871232
2007-04-10 07:13:59 51°12.506 2°48.92 10.0195 3.390949 29.357475 -2.871232
2007-04-10 07:14:04 51°12.498 2°48.895 10.0142 3.390846 29.356482 -2.871232
2007-04-10 07:14:09 51°12.489 2°48.87 10.016 3.391156 29.360215 -2.871232
2007-04-10 07:14:14 51°12.48 2°48.844 10.0106 3.39126 29.360455 -2.871232
2007-04-10 07:14:19 51°12.471 2°48.819 10.0089 3.39126 29.360455 -2.871232
2007-04-10 07:14:24 51°12.463 2°48.794 10.0057 3.39157 29.364942 -2.871232
2007-04-10 07:14:29 51°12.454 2°48.769 10.0034 3.391881 29.369429 -2.871232
2007-04-10 07:14:34 51°12.446 2°48.743 10.0042 3.392295 29.375664 -2.871232
2007-04-10 07:14:39 51°12.437 2°48.718 10.0004 3.392606 29.380152 -2.871232
2007-04-10 07:14:44 51°12.428 2°48.692 10.0038 3.392916 29.385395 -2.871232
2007-04-10 07:14:49 51°12.419 2°48.667 10.0025 3.392916 29.385395 -2.871232
2007-04-10 07:14:54 51°12.411 2°48.642 10.0065 3.393124 29.389645 -2.871232
2007-04-10 07:14:59 51°12.402 2°48.617 10.0056 3.393331 29.393895 -2.871232
2007-04-10 07:15:04 51°12.393 2°48.592 10.0041 3.393434 29.397907 -2.871232
2007-04-10 07:15:09 51°12.385 2°48.566 10.0036 3.393745 29.401644 -2.871232
2007-04-10 07:15:14 51°12.376 2°48.541 10.0025 3.393952 29.404387 -2.871232
2007-04-10 07:15:19 51°12.368 2°48.516 10.0034 3.393952 29.404387 -2.871232
2007-04-10 07:15:24 51°12.359 2°48.491 10.0063 3.394366 29.409118 -2.871232
2007-04-10 07:15:29 51°12.35 2°48.465 10.0038 3.394987 29.414329 -2.871232
2007-04-10 07:15:34 51°12.341 2°48.441 10.0048 3.395609 29.420294 -2.871232
2007-04-10 07:15:39 51°12.333 2°48.415 10.007 3.396126 29.426021 -2.871232
2007-04-10 07:15:43 51°12.325 2°48.395 10.0012 3.396437 29.429759 -2.871232
2007-04-10 07:15:49 51°12.315 2°48.365 10.0014 3.396437 29.429759 -2.871232
2007-04-10 07:15:54 51°12.306 2°48.339 10.0033 3.396748 29.432742 -2.871232
2007-04-10 07:15:59 51°12.298 2°48.314 10.001 3.396955 29.433975 -2.871232
2007-04-10 07:16:04 51°12.289 2°48.289 10.0067 3.397472 29.438947 -2.871232
2007-04-10 07:16:09 51°12.281 2°48.263 10.0048 3.397886 29.442925 -2.871232
2007-04-10 07:16:14 51°12.272 2°48.238 10.0047 3.398197 29.446664 -2.871232
2007-04-10 07:16:19 51°12.263 2°48.213 10.006 3.398197 29.446664 -2.871232
2007-04-10 07:16:24 51°12.255 2°48.187 10.0086 3.398611 29.452153 -2.871232
2007-04-10 07:16:29 51°12.246 2°48.162 10.0036 3.398922 29.455137 -2.871232
2007-04-10 07:16:34 51°12.237 2°48.137 10.0102 3.39944 29.460109 -2.871232
2007-04-10 07:16:39 51°12.228 2°48.111 10.0075 3.399647 29.461342 -2.871232
2007-04-10 07:16:44 51°12.22 2°48.086 10.0056 3.400164 29.465559 -2.871232
2007-04-10 07:16:49 51°12.211 2°48.06 10.0082 3.400164 29.465559 -2.871232
2007-04-10 07:16:54 51°12.202 2°48.035 10.0069 3.400475 29.468542 -2.871232
2007-04-10 07:16:59 51°12.194 2°48.009 10.0108 3.400578 29.468024 -2.871232
2007-04-10 07:17:04 51°12.186 2°47.983 10.0093 3.400475 29.467786 -2.871232
2007-04-10 07:17:09 51°12.178 2°47.957 10.0103 3.400578 29.468024 -2.871232
2007-04-10 07:17:14 51°12.171 2°47.93 10.0037 3.400578 29.46878 -2.871232
2007-04-10 07:17:19 51°12.163 2°47.904 10.0002 3.400578 29.46878 -2.871232
2007-04-10 07:17:24 51°12.157 2°47.876 9.999 3.401303 29.475742 -2.871232
2007-04-10 07:17:29 51°12.15 2°47.849 9.9964 3.401614 29.477969 -2.871232
2007-04-10 07:17:34 51°12.145 2°47.822 9.9983 3.402442 29.484412 -2.871232
2007-04-10 07:17:39 51°12.138 2°47.794 9.9946 3.402856 29.487633 -2.871232
2007-04-10 07:17:44 51°12.134 2°47.766 9.9907 3.403478 29.494358 -2.871232
2007-04-10 07:17:49 51°12.127 2°47.739 9.9901 3.403478 29.494358 -2.871232
2007-04-10 07:17:54 51°12.123 2°47.711 9.991 3.404202 29.504348 -2.871232
2007-04-10 07:17:59 51°12.117 2°47.683 9.9871 3.404617 29.509842 -2.871232
2007-04-10 07:18:04 51°12.112 2°47.655 9.9839 3.405134 29.517847 -2.871232
2007-04-10 07:18:09 51°12.106 2°47.627 9.985 3.405445 29.52159 -2.871232
2007-04-10 07:18:14 51°12.101 2°47.599 9.9869 3.405859 29.528602 -2.871232
2007-04-10 07:18:19 51°12.096 2°47.571 9.9832 3.405859 29.528602 -2.871232
2007-04-10 07:18:24 51°12.091 2°47.543 9.9859 3.406377 29.535852 -2.871232
2007-04-10 07:18:29 51°12.085 2°47.516 9.9872 3.406688 29.540355 -2.871232
2007-04-10 07:18:34 51°12.08 2°47.488 9.988 3.407205 29.548366 -2.871232
2007-04-10 07:18:39 51°12.074 2°47.46 9.986 3.407516 29.552111 -2.871232
2007-04-10 07:18:44 51°12.069 2°47.432 9.9887 3.407827 29.555097 -2.871232
2007-04-10 07:18:49 51°12.063 2°47.404 9.9891 3.407827 29.555097 -2.871232
2007-04-10 07:18:54 51°12.058 2°47.376 9.9908 3.408241 29.560597 -2.871232
2007-04-10 07:18:59 51°12.052 2°47.349 9.9868 3.408655 29.564579 -2.871232
2007-04-10 07:19:04 51°12.047 2°47.321 9.9866 3.408862 29.565811 -2.871232
2007-04-10 07:19:09 51°12.042 2°47.293 9.9893 3.409173 29.568797 -2.871232
2007-04-10 07:19:14 51°12.037 2°47.265 9.9862 3.409483 29.571024 -2.871232
2007-04-10 07:19:19 51°12.032 2°47.237 9.9802 3.409483 29.571024 -2.871232
2007-04-10 07:19:24 51°12.027 2°47.209 9.979 3.409794 29.573251 -2.871232
2007-04-10 07:19:29 51°12.023 2°47.18 9.9753 3.410001 29.574483 -2.871232
2007-04-10 07:19:34 51°12.018 2°47.152 9.9782 3.410415 29.578465 -2.871232
2007-04-10 07:19:39 51°12.013 2°47.124 9.977 3.410726 29.582211 -2.871232
2007-04-10 07:19:44 51°12.008 2°47.096 9.9764 3.410726 29.582971 -2.871232
2007-04-10 07:19:49 51°12.003 2°47.068 9.9768 3.410726 29.582971 -2.871232
2007-04-10 07:19:54 51°11.998 2°47.04 9.9733 3.411451 29.59146 -2.871232
2007-04-10 07:19:59 51°11.993 2°47.012 9.9624 3.411658 29.597252 -2.871232
2007-04-10 07:20:04 51°11.988 2°46.983 9.9547 3.411865 29.600764 -2.871232
2007-04-10 07:20:09 51°11.984 2°46.955 9.9559 3.412072 29.603516 -2.871232
2007-04-10 07:20:14 51°11.98 2°46.927 9.945 3.412279 29.607029 -2.871232
2007-04-10 07:20:19 51°11.975 2°46.898 9.948 3.412279 29.607029 -2.871232
2007-04-10 07:20:24 51°11.971 2°46.87 9.9444 3.412382 29.608025 -2.871232
2007-04-10 07:20:29 51°11.967 2°46.842 9.9398 3.412797 29.614291 -2.871232
2007-04-10 07:20:34 51°11.963 2°46.813 9.9419 3.413107 29.622607 -2.871232
2007-04-10 07:20:39 51°11.958 2°46.785 9.9381 3.413211 29.628933 -2.871232
2007-04-10 07:20:44 51°11.954 2°46.757 9.9354 3.413315 29.635262 -2.871232
2007-04-10 07:20:49 51°11.95 2°46.728 9.9373 3.413315 29.635262 -2.871232
2007-04-10 07:20:54 51°11.946 2°46.7 9.9337 3.413418 29.639306 -2.871232
2007-04-10 07:20:59 51°11.941 2°46.672 9.9332 3.413315 29.641358 -2.871232
2007-04-10 07:21:04 51°11.937 2°46.643 9.9276 3.413625 29.647398 -2.871232
2007-04-10 07:21:09 51°11.933 2°46.615 9.9298 3.413625 29.648161 -2.871232
2007-04-10 07:21:14 51°11.929 2°46.587 9.9287 3.412176 29.637252 -2.871232
2007-04-10 07:21:19 51°11.925 2°46.559 9.9245 3.412176 29.637252 -2.871232
2007-04-10 07:21:24 51°11.92 2°46.53 9.922 3.410623 29.623822 -2.871232
2007-04-10 07:21:29 51°11.916 2°46.502 9.9155 3.411451 29.633322 -2.871232
2007-04-10 07:21:34 51°11.912 2°46.474 9.913 3.412072 29.641592 -2.871232
2007-04-10 07:21:39 51°11.908 2°46.446 9.9107 3.414143 29.664589 -2.871232
2007-04-10 07:21:44 51°11.904 2°46.417 9.9099 3.414247 29.66635 -2.871232
2007-04-10 07:21:49 51°11.9 2°46.389 9.9085 3.414247 29.66635 -2.871232
2007-04-10 07:21:54 51°11.896 2°46.361 9.9096 3.415282 29.677851 -2.871232
2007-04-10 07:21:59 51°11.892 2°46.332 9.9081 3.416318 29.691646 -2.871232
2007-04-10 07:22:03 51°11.888 2°46.31 9.9122 3.416732 29.699458 -2.871232
2007-04-10 07:22:09 51°11.883 2°46.276 9.9077 3.414558 29.681561 -2.871232
2007-04-10 07:22:14 51°11.879 2°46.248 9.911 3.41725 29.709035 -2.871232
2007-04-10 07:22:19 51°11.875 2°46.22 9.9117 3.41725 29.709035 -2.871232
2007-04-10 07:22:24 51°11.871 2°46.191 9.9143 3.417353 29.712328 -2.871232
2007-04-10 07:22:29 51°11.866 2°46.163 9.9136 3.416421 29.70411 -2.871232
2007-04-10 07:22:34 51°11.862 2°46.135 9.9128 3.414351 29.684914 -2.871232
2007-04-10 07:22:39 51°11.858 2°46.107 9.9125 3.417664 29.717617 -2.871232
2007-04-10 07:22:44 51°11.854 2°46.079 9.9155 3.417768 29.718615 -2.871232
2007-04-10 07:22:49 51°11.85 2°46.05 9.9145 3.417768 29.718615 -2.871232
2007-04-10 07:22:54 51°11.846 2°46.022 9.9142 3.417768 29.71785 -2.871232
2007-04-10 07:22:59 51°11.842 2°45.994 9.9124 3.415697 29.696359 -2.871232
2007-04-10 07:23:04 51°11.839 2°45.965 9.913 3.418078 29.719314 -2.871232
2007-04-10 07:23:09 51°11.835 2°45.936 9.9138 3.416111 29.699586 -2.871232
2007-04-10 07:23:14 51°11.832 2°45.908 9.9095 3.417871 29.715788 -2.871232
2007-04-10 07:23:19 51°11.829 2°45.879 9.9157 3.417871 29.715788 -2.871232
2007-04-10 07:23:24 51°11.825 2°45.851 9.9107 3.418596 29.72201 -2.871232
2007-04-10 07:23:29 51°11.822 2°45.822 9.9146 3.417767 29.714025 -2.871232
2007-04-10 07:23:34 51°11.819 2°45.794 9.9122 3.417043 29.707804 -2.871232
2007-04-10 07:23:39 51°11.815 2°45.765 9.9134 3.419217 29.729529 -2.871232
2007-04-10 07:23:44 51°11.812 2°45.737 9.9114 3.419528 29.733288 -2.871232
2007-04-10 07:23:49 51°11.808 2°45.708 9.9117 3.419528 29.733288 -2.871232
2007-04-10 07:23:54 51°11.805 2°45.68 9.9155 3.415697 29.696359 -2.871232
2007-04-10 07:23:59 51°11.801 2°45.651 9.9089 3.417353 29.712328 -2.871232
2007-04-10 07:24:04 51°11.798 2°45.623 9.9073 3.419321 29.730527 -2.871232
2007-04-10 07:24:09 51°11.794 2°45.594 9.9059 3.420149 29.738512 -2.871232
2007-04-10 07:24:14 51°11.791 2°45.566 9.9085 3.417768 29.71632 -2.871232
2007-04-10 07:24:19 51°11.787 2°45.537 9.9063 3.417768 29.71632 -2.871232
2007-04-10 07:24:24 51°11.784 2°45.508 9.9024 3.420977 29.748029 -2.871232
2007-04-10 07:24:29 51°11.78 2°45.48 9.903 3.417664 29.716087 -2.871232
2007-04-10 07:24:34 51°11.777 2°45.451 9.9023 3.419838 29.737814 -2.871232
2007-04-10 07:24:39 51°11.773 2°45.422 9.8994 3.419942 29.740344 -2.871232
2007-04-10 07:24:44 51°11.77 2°45.394 9.901 3.422738 29.768833 -2.871232
2007-04-10 07:24:49 51°11.766 2°45.365 9.8985 3.422738 29.768833 -2.871232
2007-04-10 07:24:54 51°11.762 2°45.336 9.9014 3.420977 29.752625 -2.871232
2007-04-10 07:24:59 51°11.759 2°45.308 9.905 3.420977 29.754157 -2.871232
2007-04-10 07:25:04 51°11.755 2°45.279 9.9044 3.424498 29.788876 -2.871232
2007-04-10 07:25:09 51°11.752 2°45.25 9.9007 3.426258 29.807389 -2.871232
2007-04-10 07:25:14 51°11.748 2°45.221 9.9011 3.427915 29.824139 -2.871232
2007-04-10 07:25:19 51°11.745 2°45.192 9.8988 3.427915 29.824139 -2.871232
2007-04-10 07:25:24 51°11.742 2°45.164 9.9037 3.42895 29.834896 -2.871232
2007-04-10 07:25:29 51°11.738 2°45.135 9.902 3.426776 29.813151 -2.871232
2007-04-10 07:25:34 51°11.734 2°45.106 9.9011 3.428226 29.826367 -2.871232
2007-04-10 07:25:39 51°11.731 2°45.077 9.9049 3.424705 29.792408 -2.871232
2007-04-10 07:25:44 51°11.728 2°45.048 9.9023 3.426776 29.813151 -2.871232
2007-04-10 07:25:49 51°11.724 2°45.02 9.904 3.426776 29.813151 -2.871232
2007-04-10 07:25:54 51°11.721 2°44.991 9.9027 3.4304 29.848883 -2.871232
2007-04-10 07:25:59 51°11.717 2°44.962 9.9044 3.428536 29.830132 -2.871232
2007-04-10 07:26:04 51°11.714 2°44.933 9.9005 3.42864 29.831131 -2.871232
2007-04-10 07:26:09 51°11.71 2°44.904 9.8985 3.429882 29.84235 -2.871232
2007-04-10 07:26:14 51°11.706 2°44.875 9.8997 3.427501 29.819375 -2.871232
2007-04-10 07:26:19 51°11.703 2°44.846 9.901 3.427501 29.819375 -2.871232
2007-04-10 07:26:24 51°11.699 2°44.817 9.899 3.429365 29.837355 -2.871232
2007-04-10 07:26:29 51°11.696 2°44.789 9.8978 3.431436 29.857335 -2.871232
2007-04-10 07:26:34 51°11.693 2°44.759 9.8972 3.429882 29.84235 -2.871232
2007-04-10 07:26:39 51°11.689 2°44.73 9.8937 3.428433 29.829901 -2.871232
2007-04-10 07:26:44 51°11.686 2°44.702 9.8932 3.429365 29.839661 -2.871232
2007-04-10 07:26:49 51°11.682 2°44.673 9.8903 3.429365 29.839661 -2.871232
2007-04-10 07:26:54 51°11.679 2°44.644 9.8922 3.427501 29.821679 -2.871232
2007-04-10 07:26:59 51°11.675 2°44.615 9.8904 3.431539 29.860641 -2.871232
2007-04-10 07:27:04 51°11.672 2°44.586 9.8943 3.429986 29.846424 -2.871232
2007-04-10 07:27:09 51°11.668 2°44.557 9.8959 3.428433 29.833743 -2.871232
2007-04-10 07:27:14 51°11.665 2°44.528 9.8963 3.430504 29.855264 -2.871232
2007-04-10 07:27:19 51°11.661 2°44.499 9.8914 3.430504 29.855264 -2.871232
2007-04-10 07:27:24 51°11.657 2°44.47 9.8934 3.432885 29.879787 -2.871232
2007-04-10 07:27:29 51°11.654 2°44.441 9.893 3.4333 29.884555 -2.871232
2007-04-10 07:27:34 51°11.65 2°44.412 9.8889 3.43009 29.853574 -2.871232
2007-04-10 07:27:39 51°11.647 2°44.383 9.888 3.430504 29.856802 -2.871232
2007-04-10 07:27:44 51°11.643 2°44.354 9.8864 3.429779 29.849038 -2.871232
2007-04-10 07:27:49 51°11.64 2°44.325 9.8844 3.429779 29.849038 -2.871232
2007-04-10 07:27:54 51°11.636 2°44.296 9.8845 3.434542 29.896548 -2.871232
2007-04-10 07:27:59 51°11.633 2°44.267 9.8815 3.433092 29.882556 -2.871232
2007-04-10 07:28:04 51°11.63 2°44.238 9.8788 3.434335 29.895319 -2.871232
2007-04-10 07:28:09 51°11.626 2°44.209 9.8808 3.428122 29.836894 -2.871232
2007-04-10 07:28:14 51°11.623 2°44.18 9.8801 3.431022 29.867185 -2.871232
2007-04-10 07:28:19 51°11.619 2°44.151 9.8808 3.431022 29.867185 -2.871232
2007-04-10 07:28:24 51°11.616 2°44.122 9.8812 3.432782 29.885717 -2.871232
2007-04-10 07:28:29 51°11.612 2°44.093 9.8798 3.432161 29.880489 -2.871232
2007-04-10 07:28:34 51°11.609 2°44.063 9.8799 3.434542 29.905794 -2.871232
2007-04-10 07:28:39 51°11.605 2°44.034 9.8797 3.429054 29.85358 -2.871232
2007-04-10 07:28:44 51°11.602 2°44.005 9.8803 3.432471 29.887339 -2.871232
2007-04-10 07:28:49 51°11.598 2°43.976 9.8838 3.432471 29.887339 -2.871232
2007-04-10 07:28:54 51°11.595 2°43.947 9.8843 3.431746 29.879571 -2.871232
2007-04-10 07:28:59 51°11.592 2°43.918 9.8863 3.432057 29.88334 -2.871232
2007-04-10 07:29:04 51°11.589 2°43.889 9.8886 3.430608 29.870114 -2.871232
2007-04-10 07:29:09 51°11.585 2°43.86 9.8899 3.430504 29.869114 -2.871232
2007-04-10 07:29:14 51°11.582 2°43.83 9.8908 3.432161 29.88511 -2.871232
2007-04-10 07:29:19 51°11.578 2°43.801 9.8922 3.432161 29.88511 -2.871232
2007-04-10 07:29:24 51°11.575 2°43.772 9.8952 3.434335 29.904565 -2.871232
2007-04-10 07:29:29 51°11.571 2°43.743 9.8967 3.431332 29.874802 -2.871232
2007-04-10 07:29:34 51°11.567 2°43.714 9.9053 3.434542 29.904252 -2.871232
2007-04-10 07:29:39 51°11.564 2°43.685 9.9046 3.434232 29.899712 -2.871232
2007-04-10 07:29:44 51°11.561 2°43.656 9.9053 3.434024 29.896172 -2.871232
2007-04-10 07:29:49 51°11.558 2°43.627 9.9056 3.434024 29.896172 -2.871232
2007-04-10 07:29:54 51°11.554 2°43.598 9.9064 3.435267 29.906627 -2.871232
2007-04-10 07:29:59 51°11.551 2°43.569 9.9059 3.432989 29.883096 -2.871232
2007-04-10 07:30:04 51°11.547 2°43.54 9.9074 3.434335 29.892239 -2.871232
2007-04-10 07:30:09 51°11.544 2°43.511 9.906 3.43506 29.896925 -2.871232
2007-04-10 07:30:14 51°11.539 2°43.482 9.9046 3.435267 29.897383 -2.871232
2007-04-10 07:30:19 51°11.534 2°43.454 9.9023 3.435267 29.897383 -2.871232
2007-04-10 07:30:24 51°11.529 2°43.426 9.9006 3.436406 29.906835 -2.871232
2007-04-10 07:30:29 51°11.524 2°43.398 9.8963 3.43537 29.896072 -2.871232
2007-04-10 07:30:34 51°11.519 2°43.37 9.894 3.438166 29.923054 -2.871232
2007-04-10 07:30:39 51°11.513 2°43.341 9.892 3.438787 29.92905 -2.871232
2007-04-10 07:30:44 51°11.507 2°43.314 9.8889 3.438891 29.93005 -2.871232
2007-04-10 07:30:49 51°11.502 2°43.286 9.8846 3.438891 29.93005 -2.871232
2007-04-10 07:30:54 51°11.495 2°43.258 9.8861 3.440237 29.944585 -2.871232
2007-04-10 07:30:59 51°11.489 2°43.231 9.8796 3.442515 29.968119 -2.871232
2007-04-10 07:31:04 51°11.483 2°43.203 9.881 3.445725 30.00143 -2.871232
2007-04-10 07:31:09 51°11.476 2°43.176 9.8801 3.443861 29.98575 -2.871232
2007-04-10 07:31:14 51°11.469 2°43.149 9.879 3.449867 30.046849 -2.871232
2007-04-10 07:31:19 51°11.462 2°43.121 9.8809 3.449867 30.046849 -2.871232
2007-04-10 07:31:24 51°11.455 2°43.095 9.8765 3.450075 30.051172 -2.871232
2007-04-10 07:31:29 51°11.447 2°43.068 9.8763 3.451835 30.070504 -2.871232
2007-04-10 07:31:34 51°11.44 2°43.041 9.8762 3.452353 30.077832 -2.871232
2007-04-10 07:31:39 51°11.432 2°43.015 9.8761 3.451214 30.0676 -2.871232
2007-04-10 07:31:44 51°11.424 2°42.988 9.8734 3.451524 30.072927 -2.871232
2007-04-10 07:31:49 51°11.416 2°42.961 9.8743 3.451524 30.072927 -2.871232
2007-04-10 07:31:54 51°11.409 2°42.935 9.8734 3.452146 30.078932 -2.871232
2007-04-10 07:31:59 51°11.401 2°42.908 9.8738 3.453078 30.088714 -2.871232
2007-04-10 07:32:04 51°11.393 2°42.881 9.8777 3.449661 30.056465 -2.871232
2007-04-10 07:32:09 51°11.385 2°42.855 9.8756 3.454527 30.104278 -2.871232
2007-04-10 07:32:14 51°11.378 2°42.828 9.876 3.453388 30.094044 -2.871232
2007-04-10 07:32:19 51°11.37 2°42.801 9.8778 3.453388 30.094044 -2.871232
2007-04-10 07:32:24 51°11.362 2°42.775 9.8828 3.45432 30.104604 -2.871232
2007-04-10 07:32:29 51°11.354 2°42.748 9.8817 3.452767 30.08959 -2.871232
2007-04-10 07:32:34 51°11.346 2°42.723 9.8802 3.453803 30.098823 -2.871232
2007-04-10 07:32:39 51°11.338 2°42.698 9.8812 3.455667 30.116064 -2.871232
2007-04-10 07:32:44 51°11.33 2°42.674 9.8819 3.453492 30.09582 -2.871232
2007-04-10 07:32:49 51°11.322 2°42.65 9.8791 3.453492 30.09582 -2.871232
2007-04-10 07:32:54 51°11.314 2°42.627 9.8813 3.453803 30.097271 -2.871232
2007-04-10 07:32:59 51°11.307 2°42.606 9.8791 3.452767 30.086487 -2.871232
2007-04-10 07:33:04 51°11.301 2°42.586 9.8778 3.451628 30.073928 -2.871232
2007-04-10 07:33:09 51°11.294 2°42.567 9.8755 3.454942 30.105177 -2.871232
2007-04-10 07:33:14 51°11.288 2°42.549 9.8778 3.457945 30.134203 -2.871232
2007-04-10 07:33:19 51°11.282 2°42.532 9.8754 3.457945 30.134203 -2.871232
2007-04-10 07:33:24 51°11.276 2°42.515 9.8738 3.459187 30.146215 -2.871232
2007-04-10 07:33:29 51°11.271 2°42.5 9.8737 3.456495 30.120967 -2.871232
2007-04-10 07:33:34 51°11.266 2°42.485 9.8707 3.457116 30.127749 -2.871232
2007-04-10 07:33:39 51°11.261 2°42.471 9.8676 3.457945 30.136534 -2.871232
2007-04-10 07:33:44 51°11.256 2°42.457 9.8658 3.456391 30.122295 -2.871232
2007-04-10 07:33:49 51°11.251 2°42.444 9.8667 3.456391 30.122295 -2.871232
2007-04-10 07:33:54 51°11.247 2°42.431 9.8655 3.456184 30.120293 -2.871232
2007-04-10 07:33:59 51°11.242 2°42.419 9.8634 3.456288 30.122847 -2.871232
2007-04-10 07:34:04 51°11.238 2°42.408 9.8667 3.459187 30.151656 -2.871232
2007-04-10 07:34:09 51°11.233 2°42.396 9.8649 3.457945 30.141196 -2.871232
2007-04-10 07:34:14 51°11.23 2°42.386 9.8637 3.457323 30.136742 -2.871232
2007-04-10 07:34:19 51°11.226 2°42.375 9.8642 3.457323 30.136742 -2.871232
2007-04-10 07:34:24 51°11.222 2°42.365 9.8647 3.463433 30.19738 -2.871232
2007-04-10 07:34:29 51°11.218 2°42.355 9.8642 3.466229 30.225983 -2.871232
2007-04-10 07:34:34 51°11.215 2°42.345 9.8647 3.466436 30.228766 -2.871232
2007-04-10 07:34:39 51°11.211 2°42.336 9.8651 3.466747 30.231771 -2.871232
2007-04-10 07:34:44 51°11.208 2°42.326 9.8645 3.466954 30.234555 -2.871232
2007-04-10 07:34:49 51°11.205 2°42.317 9.863 3.466954 30.234555 -2.871232
2007-04-10 07:34:54 51°11.202 2°42.308 9.8632 3.467265 30.23912 -2.871232
2007-04-10 07:34:59 51°11.199 2°42.3 9.8589 3.467472 30.240344 -2.871232
2007-04-10 07:35:04 51°11.197 2°42.291 9.8604 3.467679 30.242348 -2.871232
2007-04-10 07:35:09 51°11.194 2°42.283 9.8586 3.467886 30.244351 -2.871232
2007-04-10 07:35:14 51°11.191 2°42.274 9.8566 3.46799 30.245353 -2.871232
2007-04-10 07:35:19 51°11.188 2°42.266 9.8568 3.46799 30.245353 -2.871232
2007-04-10 07:35:24 51°11.186 2°42.258 9.8558 3.468197 30.248137 -2.871232
2007-04-10 07:35:29 51°11.183 2°42.25 9.8533 3.4683 30.249919 -2.871232
2007-04-10 07:35:34 51°11.181 2°42.242 9.8533 3.468507 30.252703 -2.871232
2007-04-10 07:35:39 51°11.178 2°42.235 9.8512 3.468507 30.254264 -2.871232
2007-04-10 07:35:43 51°11.177 2°42.229 9.8517 3.468611 30.256046 -2.871232
2007-04-10 07:35:49 51°11.173 2°42.22 9.849 3.468611 30.256046 -2.871232
2007-04-10 07:35:54 51°11.171 2°42.213 9.8516 3.468507 30.256605 -2.871232
2007-04-10 07:35:59 51°11.168 2°42.207 9.8493 3.468507 30.257386 -2.871232
2007-04-10 07:36:04 51°11.166 2°42.2 9.8484 3.468611 30.259949 -2.871232
2007-04-10 07:36:09 51°11.163 2°42.194 9.8492 3.468611 30.26151 -2.871232
2007-04-10 07:36:14 51°11.16 2°42.189 9.8549 3.468715 30.263293 -2.871232
2007-04-10 07:36:19 51°11.157 2°42.184 9.856 3.468715 30.263293 -2.871232
2007-04-10 07:36:24 51°11.154 2°42.179 9.8562 3.468715 30.264855 -2.871232
2007-04-10 07:36:29 51°11.151 2°42.174 9.8603 3.468715 30.264855 -2.871232
2007-04-10 07:36:34 51°11.148 2°42.169 9.8624 3.468818 30.266638 -2.871232
2007-04-10 07:36:39 51°11.145 2°42.164 9.8653 3.468818 30.267419 -2.871232
2007-04-10 07:36:44 51°11.141 2°42.16 9.866 3.468818 30.265857 -2.871232
2007-04-10 07:36:49 51°11.138 2°42.155 9.8663 3.468818 30.265857 -2.871232
2007-04-10 07:36:54 51°11.135 2°42.151 9.8674 3.468818 30.264296 -2.871232
2007-04-10 07:36:59 51°11.132 2°42.146 9.8675 3.468818 30.262734 -2.871232
2007-04-10 07:37:04 51°11.129 2°42.141 9.8693 3.468818 30.259612 -2.871232
2007-04-10 07:37:09 51°11.127 2°42.136 9.8694 3.468818 30.258051 -2.871232
2007-04-10 07:37:14 51°11.124 2°42.132 9.8686 3.468922 30.256711 -2.871232
2007-04-10 07:37:19 51°11.121 2°42.127 9.87 3.468922 30.256711 -2.871232
2007-04-10 07:37:24 51°11.119 2°42.123 9.8706 3.468922 30.255931 -2.871232
2007-04-10 07:37:30 51°11.116 2°42.117 9.8709 3.468922 30.254371 -2.871232
2007-04-10 07:37:34 51°11.115 2°42.113 9.8719 3.468922 30.25359 -2.871232
2007-04-10 07:37:39 51°11.113 2°42.108 9.873 3.468922 30.25203 -2.871232
2007-04-10 07:37:44 51°11.111 2°42.104 9.871 3.468922 30.25125 -2.871232
2007-04-10 07:37:49 51°11.109 2°42.1 9.8701 3.468922 30.25125 -2.871232
2007-04-10 07:37:54 51°11.108 2°42.095 9.8712 3.468922 30.25125 -2.871232
2007-04-10 07:37:59 51°11.106 2°42.091 9.8721 3.468818 30.250248 -2.871232
2007-04-10 07:38:04 51°11.105 2°42.087 9.8725 3.468818 30.249468 -2.871232
2007-04-10 07:38:09 51°11.103 2°42.083 9.8712 3.468714 30.247686 -2.871232
2007-04-10 07:38:14 51°11.102 2°42.079 9.8728 3.468611 30.246685 -2.871232
2007-04-10 07:38:19 51°11.101 2°42.075 9.872 3.468611 30.246685 -2.871232
2007-04-10 07:38:24 51°11.1 2°42.072 9.8721 3.468507 30.245683 -2.871232
2007-04-10 07:38:29 51°11.099 2°42.069 9.8725 3.468404 30.245461 -2.871232
2007-04-10 07:38:34 51°11.098 2°42.066 9.873 3.468404 30.244681 -2.871232
2007-04-10 07:38:39 51°11.098 2°42.064 9.8728 3.4683 30.243679 -2.871232
2007-04-10 07:38:44 51°11.097 2°42.063 9.872 3.4683 30.243679 -2.871232
2007-04-10 07:38:49 51°11.097 2°42.062 9.872 3.4683 30.243679 -2.871232
2007-04-10 07:38:54 51°11.097 2°42.061 9.8715 3.4683 30.242899 -2.871232
2007-04-10 07:38:59 51°11.097 2°42.06 9.873 3.468197 30.241898 -2.871232
2007-04-10 07:39:04 51°11.097 2°42.059 9.8716 3.468197 30.241898 -2.871232
2007-04-10 07:39:09 51°11.096 2°42.058 9.8718 3.468093 30.240896 -2.871232
2007-04-10 07:39:14 51°11.096 2°42.057 9.8719 3.468093 30.240896 -2.871232
2007-04-10 07:39:19 51°11.096 2°42.057 9.8721 3.468093 30.240896 -2.871232
2007-04-10 07:39:24 51°11.096 2°42.056 9.8703 3.468093 30.241676 -2.871232
2007-04-10 07:39:29 51°11.096 2°42.055 9.8699 3.468093 30.241676 -2.871232
2007-04-10 07:39:34 51°11.096 2°42.054 9.869 3.468197 30.241898 -2.871232
2007-04-10 07:39:39 51°11.096 2°42.053 9.8689 3.468093 30.240896 -2.871232
2007-04-10 07:39:44 51°11.096 2°42.053 9.8678 3.468197 30.242677 -2.871232
2007-04-10 07:39:49 51°11.095 2°42.052 9.8664 3.468197 30.242677 -2.871232
2007-04-10 07:39:54 51°11.095 2°42.051 9.8667 3.468197 30.243457 -2.871232
2007-04-10 07:39:59 51°11.095 2°42.051 9.8676 3.468197 30.244237 -2.871232
2007-04-10 07:40:04 51°11.095 2°42.05 9.8669 3.468197 30.244237 -2.871232
2007-04-10 07:40:09 51°11.095 2°42.049 9.8635 3.468093 30.244015 -2.871232
2007-04-10 07:40:14 51°11.095 2°42.049 9.8629 3.468197 30.245797 -2.871232
2007-04-10 07:40:19 51°11.095 2°42.048 9.8612 3.468197 30.245797 -2.871232
2007-04-10 07:40:24 51°11.095 2°42.047 9.8604 3.468197 30.246577 -2.871232
2007-04-10 07:40:29 51°11.094 2°42.047 9.8604 3.468197 30.247357 -2.871232
2007-04-10 07:40:34 51°11.094 2°42.046 9.8602 3.4683 30.248359 -2.871232
2007-04-10 07:40:39 51°11.094 2°42.046 9.8595 3.4683 30.249139 -2.871232
2007-04-10 07:40:44 51°11.094 2°42.045 9.8586 3.468404 30.250921 -2.871232
2007-04-10 07:40:49 51°11.094 2°42.045 9.8599 3.468404 30.250921 -2.871232
2007-04-10 07:40:54 51°11.094 2°42.044 9.8585 3.4683 30.25148 -2.871232
2007-04-10 07:40:59 51°11.094 2°42.044 9.858 3.468404 30.252482 -2.871232
2007-04-10 07:41:04 51°11.094 2°42.043 9.8575 3.468404 30.253262 -2.871232
2007-04-10 07:41:09 51°11.094 2°42.043 9.8568 3.4683 30.25304 -2.871232
2007-04-10 07:41:14 51°11.094 2°42.042 9.8568 3.468404 30.254823 -2.871232
2007-04-10 07:41:19 51°11.094 2°42.042 9.857 3.468404 30.254823 -2.871232
2007-04-10 07:41:24 51°11.094 2°42.042 9.8578 3.468404 30.255603 -2.871232
2007-04-10 07:41:29 51°11.093 2°42.041 9.8574 3.468404 30.256384 -2.871232
2007-04-10 07:41:34 51°11.094 2°42.041 9.8568 3.468507 30.257386 -2.871232
2007-04-10 07:41:39 51°11.093 2°42.041 9.8563 3.468507 30.258166 -2.871232
2007-04-10 07:41:44 51°11.093 2°42.04 9.8591 3.468404 30.257164 -2.871232
2007-04-10 07:41:49 51°11.092 2°42.04 9.8568 3.468404 30.257164 -2.871232
2007-04-10 07:41:54 51°11.092 2°42.04 9.8554 3.468404 30.257945 -2.871232
2007-04-10 07:41:59 51°11.092 2°42.04 9.8544 3.468404 30.257164 -2.871232
2007-04-10 07:42:03 51°11.092 2°42.039 9.8529 3.468507 30.257386 -2.871232
2007-04-10 07:42:09 51°11.092 2°42.039 9.8549 3.468507 30.258166 -2.871232
2007-04-10 07:42:14 51°11.092 2°42.039 9.855 3.468507 30.258166 -2.871232
2007-04-10 07:42:19 51°11.092 2°42.039 9.8553 3.468507 30.258166 -2.871232
2007-04-10 07:42:24 51°11.092 2°42.039 9.8565 3.468507 30.258166 -2.871232
2007-04-10 07:42:29 51°11.092 2°42.039 9.8548 3.468611 30.259949 -2.871232
2007-04-10 07:42:34 51°11.091 2°42.038 9.853 3.468508 30.260508 -2.871232
2007-04-10 07:42:39 51°11.091 2°42.038 9.8546 3.468508 30.260508 -2.871232
2007-04-10 07:42:44 51°11.091 2°42.038 9.8536 3.468611 30.26151 -2.871232
2007-04-10 07:42:49 51°11.091 2°42.038 9.8548 3.468611 30.26151 -2.871232
2007-04-10 07:42:54 51°11.091 2°42.038 9.8522 3.468715 30.261732 -2.871232
2007-04-10 07:42:59 51°11.091 2°42.038 9.8526 3.468818 30.262734 -2.871232
2007-04-10 07:43:04 51°11.091 2°42.038 9.8528 3.468818 30.263515 -2.871232
2007-04-10 07:43:09 51°11.091 2°42.038 9.8527 3.468715 30.264074 -2.871232
2007-04-10 07:43:14 51°11.091 2°42.038 9.8513 3.468922 30.265298 -2.871232
2007-04-10 07:43:19 51°11.091 2°42.038 9.8518 3.468922 30.265298 -2.871232
2007-04-10 07:43:24 51°11.091 2°42.038 9.8512 3.468922 30.264517 -2.871232
2007-04-10 07:43:29 51°11.091 2°42.038 9.8505 3.469025 30.2663 -2.871232
2007-04-10 07:43:34 51°11.091 2°42.038 9.8524 3.469025 30.2663 -2.871232
2007-04-10 07:43:39 51°11.091 2°42.038 9.8502 3.468922 30.266079 -2.871232
2007-04-10 07:43:44 51°11.091 2°42.038 9.8493 3.469025 30.267862 -2.871232
2007-04-10 07:43:49 51°11.09 2°42.039 9.8498 3.469025 30.267862 -2.871232
2007-04-10 07:43:54 51°11.09 2°42.039 9.8505 3.469025 30.267081 -2.871232
2007-04-10 07:43:59 51°11.09 2°42.039 9.851 3.469025 30.267862 -2.871232
2007-04-10 07:44:04 51°11.09 2°42.039 9.8511 3.469025 30.267862 -2.871232
2007-04-10 07:44:09 51°11.09 2°42.039 9.8488 3.469025 30.268643 -2.871232
2007-04-10 07:44:14 51°11.09 2°42.039 9.8492 3.468922 30.267641 -2.871232
2007-04-10 07:44:19 51°11.09 2°42.04 9.849 3.468922 30.267641 -2.871232
2007-04-10 07:44:24 51°11.09 2°42.04 9.8497 3.469025 30.269424 -2.871232
2007-04-10 07:44:29 51°11.09 2°42.04 9.8506 3.469025 30.269424 -2.871232
2007-04-10 07:44:34 51°11.09 2°42.04 9.8501 3.469025 30.268643 -2.871232
2007-04-10 07:44:39 51°11.09 2°42.04 9.8524 3.469025 30.268643 -2.871232
2007-04-10 07:44:44 51°11.09 2°42.041 9.8498 3.469025 30.269424 -2.871232
2007-04-10 07:44:49 51°11.09 2°42.041 9.8499 3.469025 30.269424 -2.871232
2007-04-10 07:44:54 51°11.09 2°42.041 9.8496 3.469129 30.270426 -2.871232
2007-04-10 07:44:59 51°11.09 2°42.041 9.8501 3.469025 30.269424 -2.871232
2007-04-10 07:45:04 51°11.09 2°42.042 9.8482 3.469129 30.270426 -2.871232
2007-04-10 07:45:09 51°11.09 2°42.042 9.8499 3.469232 30.270648 -2.871232
2007-04-10 07:45:14 51°11.09 2°42.042 9.8483 3.469129 30.269645 -2.871232
2007-04-10 07:45:19 51°11.09 2°42.043 9.8483 3.469129 30.269645 -2.871232
2007-04-10 07:45:24 51°11.09 2°42.043 9.849 3.469129 30.270426 -2.871232
2007-04-10 07:45:29 51°11.09 2°42.043 9.8506 3.469129 30.270426 -2.871232
2007-04-10 07:45:34 51°11.09 2°42.044 9.8507 3.469232 30.27221 -2.871232
2007-04-10 07:45:39 51°11.09 2°42.044 9.8526 3.469129 30.271208 -2.871232
2007-04-10 07:45:44 51°11.089 2°42.044 9.8491 3.469232 30.27221 -2.871232
2007-04-10 07:45:49 51°11.089 2°42.043 9.8527 3.469232 30.27221 -2.871232
2007-04-10 07:45:54 51°11.088 2°42.042 9.8491 3.469232 30.272991 -2.871232
2007-04-10 07:45:59 51°11.086 2°42.04 9.8485 3.469232 30.27221 -2.871232
2007-04-10 07:46:04 51°11.084 2°42.039 9.8492 3.469336 30.272431 -2.871232
2007-04-10 07:46:09 51°11.082 2°42.036 9.8491 3.46944 30.272653 -2.871232
2007-04-10 07:46:14 51°11.079 2°42.033 9.8486 3.46944 30.272653 -2.871232
2007-04-10 07:46:19 51°11.074 2°42.029 9.8489 3.46944 30.272653 -2.871232
2007-04-10 07:46:24 51°11.069 2°42.023 9.8498 3.46944 30.272653 -2.871232
2007-04-10 07:46:29 51°11.063 2°42.017 9.8513 3.469336 30.27165 -2.871232
2007-04-10 07:46:34 51°11.056 2°42.009 9.8539 3.469232 30.271429 -2.871232
2007-04-10 07:46:39 51°11.048 2°42 9.8545 3.469129 30.271208 -2.871232
2007-04-10 07:46:44 51°11.04 2°41.989 9.8563 3.469025 30.270205 -2.871232
2007-04-10 07:46:49 51°11.031 2°41.977 9.8565 3.469025 30.270205 -2.871232
2007-04-10 07:46:54 51°11.021 2°41.962 9.8597 3.468922 30.269984 -2.871232
2007-04-10 07:46:59 51°11.011 2°41.946 9.8602 3.468922 30.269984 -2.871232
2007-04-10 07:47:04 51°11 2°41.928 9.8627 3.468922 30.268422 -2.871232
2007-04-10 07:47:09 51°10.99 2°41.908 9.8625 3.468922 30.26686 -2.871232
2007-04-10 07:47:14 51°10.98 2°41.887 9.8597 3.468818 30.264296 -2.871232
2007-04-10 07:47:19 51°10.97 2°41.865 9.859 3.468818 30.264296 -2.871232
2007-04-10 07:47:24 51°10.96 2°41.841 9.8539 3.468818 30.262734 -2.871232
2007-04-10 07:47:29 51°10.951 2°41.817 9.8556 3.468818 30.261173 -2.871232
2007-04-10 07:47:34 51°10.941 2°41.792 9.8546 3.468715 30.25861 -2.871232
2007-04-10 07:47:39 51°10.934 2°41.765 9.8507 3.468715 30.256268 -2.871232
2007-04-10 07:47:44 51°10.926 2°41.739 9.8459 3.468507 30.254264 -2.871232
2007-04-10 07:47:49 51°10.919 2°41.711 9.8444 3.468507 30.254264 -2.871232
2007-04-10 07:47:54 51°10.912 2°41.684 9.8441 3.4683 30.25304 -2.871232
2007-04-10 07:47:59 51°10.906 2°41.656 9.8426 3.46799 30.251595 -2.871232
2007-04-10 07:48:04 51°10.9 2°41.628 9.8376 3.467886 30.251373 -2.871232
2007-04-10 07:48:09 51°10.893 2°41.599 9.8373 3.46799 30.253155 -2.871232
2007-04-10 07:48:14 51°10.888 2°41.57 9.8359 3.467783 30.255053 -2.871232
2007-04-10 07:48:19 51°10.883 2°41.541 9.8359 3.467783 30.255053 -2.871232
2007-04-10 07:48:24 51°10.878 2°41.512 9.8365 3.467679 30.257174 -2.871232
2007-04-10 07:48:29 51°10.874 2°41.483 9.8358 3.467679 30.258735 -2.871232
2007-04-10 07:48:34 51°10.87 2°41.454 9.835 3.467679 30.260297 -2.871232
2007-04-10 07:48:39 51°10.866 2°41.424 9.8359 3.467783 30.263642 -2.871232
2007-04-10 07:48:44 51°10.862 2°41.395 9.8321 3.467886 30.266988 -2.871232
2007-04-10 07:48:49 51°10.858 2°41.365 9.834 3.467886 30.266988 -2.871232
2007-04-10 07:48:54 51°10.854 2°41.336 9.8325 3.46799 30.269553 -2.871232
2007-04-10 07:48:59 51°10.849 2°41.306 9.8354 3.468301 30.273343 -2.871232
2007-04-10 07:49:03 51°10.846 2°41.283 9.8351 3.468508 30.275348 -2.871232
2007-04-10 07:49:09 51°10.841 2°41.247 9.8362 3.468611 30.277133 -2.871232
2007-04-10 07:49:14 51°10.837 2°41.218 9.8379 3.468715 30.278917 -2.871232
2007-04-10 07:49:19 51°10.833 2°41.188 9.8364 3.468715 30.278917 -2.871232
2007-04-10 07:49:24 51°10.829 2°41.159 9.8398 3.468818 30.281483 -2.871232
2007-04-10 07:49:29 51°10.825 2°41.129 9.8389 3.468922 30.282486 -2.871232
2007-04-10 07:49:34 51°10.821 2°41.1 9.8411 3.469129 30.282928 -2.871232
2007-04-10 07:49:39 51°10.816 2°41.071 9.8402 3.469336 30.284152 -2.871232
2007-04-10 07:49:44 51°10.812 2°41.041 9.842 3.469543 30.286158 -2.871232
2007-04-10 07:49:49 51°10.808 2°41.012 9.8445 3.469543 30.286158 -2.871232
2007-04-10 07:49:54 51°10.803 2°40.982 9.8478 3.46975 30.288164 -2.871232
2007-04-10 07:49:59 51°10.799 2°40.953 9.8452 3.470061 30.29039 -2.871232
2007-04-10 07:50:04 51°10.795 2°40.924 9.847 3.470268 30.291614 -2.871232
2007-04-10 07:50:09 51°10.79 2°40.895 9.851 3.470372 30.291053 -2.871232
2007-04-10 07:50:14 51°10.785 2°40.866 9.8578 3.470579 30.292277 -2.871232
2007-04-10 07:50:19 51°10.781 2°40.837 9.8652 3.470579 30.292277 -2.871232
2007-04-10 07:50:24 51°10.776 2°40.808 9.8691 3.470682 30.292498 -2.871232
2007-04-10 07:50:29 51°10.772 2°40.779 9.8721 3.470889 30.29294 -2.871232
2007-04-10 07:50:34 51°10.767 2°40.75 9.8732 3.471097 30.294945 -2.871232
2007-04-10 07:50:39 51°10.763 2°40.721 9.8755 3.471511 30.297392 -2.871232
2007-04-10 07:50:44 51°10.758 2°40.692 9.8802 3.47265 30.304512 -2.871232
2007-04-10 07:50:49 51°10.754 2°40.663 9.8889 3.47265 30.304512 -2.871232
2007-04-10 07:50:54 51°10.75 2°40.634 9.8922 3.474307 30.315078 -2.871232
2007-04-10 07:50:59 51°10.746 2°40.605 9.8961 3.475963 30.326425 -2.871232
2007-04-10 07:51:04 51°10.742 2°40.575 9.8988 3.477931 30.341558 -2.871232
2007-04-10 07:51:09 51°10.738 2°40.546 9.9008 3.479588 30.355248 -2.871232
2007-04-10 07:51:14 51°10.734 2°40.517 9.9062 3.481245 30.367371 -2.871232
2007-04-10 07:51:19 51°10.73 2°40.488 9.9119 3.481245 30.367371 -2.871232
2007-04-10 07:51:24 51°10.726 2°40.459 9.9213 3.482902 30.378708 -2.871232
2007-04-10 07:51:29 51°10.722 2°40.43 9.9265 3.484559 30.38926 -2.871232
2007-04-10 07:51:34 51°10.717 2°40.401 9.9323 3.486112 30.401158 -2.871232
2007-04-10 07:51:39 51°10.713 2°40.371 9.9349 3.487665 30.411487 -2.871232
2007-04-10 07:51:44 51°10.709 2°40.342 9.9375 3.489115 30.423163 -2.871232
2007-04-10 07:51:49 51°10.705 2°40.313 9.9386 3.489115 30.423163 -2.871232
2007-04-10 07:51:54 51°10.701 2°40.284 9.9406 3.490461 30.430701 -2.871232
2007-04-10 07:51:59 51°10.696 2°40.255 9.942 3.491807 30.437452 -2.871232
2007-04-10 07:52:04 51°10.692 2°40.226 9.9425 3.493257 30.445987 -2.871232
2007-04-10 07:52:09 51°10.688 2°40.197 9.9439 3.494189 30.449513 -2.871232
2007-04-10 07:52:14 51°10.684 2°40.168 9.9426 3.495018 30.453604 -2.871232
2007-04-10 07:52:19 51°10.68 2°40.139 9.9408 3.495018 30.453604 -2.871232
2007-04-10 07:52:24 51°10.676 2°40.11 9.9433 3.495846 30.458479 -2.871232
2007-04-10 07:52:29 51°10.672 2°40.08 9.948 3.496364 30.461133 -2.871232
2007-04-10 07:52:34 51°10.667 2°40.051 9.9532 3.496985 30.465572 -2.871232
2007-04-10 07:52:39 51°10.663 2°40.022 9.9564 3.497296 30.467008 -2.871232
2007-04-10 07:52:44 51°10.659 2°39.993 9.9582 3.497607 30.469227 -2.871232
2007-04-10 07:52:49 51°10.655 2°39.964 9.9565 3.497607 30.469227 -2.871232
2007-04-10 07:52:54 51°10.651 2°39.934 9.9557 3.497814 30.471229 -2.871232
2007-04-10 07:52:59 51°10.647 2°39.905 9.9556 3.498124 30.473449 -2.871232
2007-04-10 07:53:04 51°10.642 2°39.875 9.9559 3.498435 30.473315 -2.871232
2007-04-10 07:53:09 51°10.638 2°39.846 9.9537 3.498849 30.473399 -2.871232
2007-04-10 07:53:14 51°10.634 2°39.817 9.9534 3.499263 30.474266 -2.871232
2007-04-10 07:53:19 51°10.63 2°39.788 9.9552 3.499263 30.474266 -2.871232
2007-04-10 07:53:24 51°10.625 2°39.759 9.9578 3.499574 30.476485 -2.871232
2007-04-10 07:53:29 51°10.621 2°39.729 9.963 3.499781 30.478487 -2.871232
2007-04-10 07:53:34 51°10.617 2°39.7 9.9708 3.499885 30.479488 -2.871232
2007-04-10 07:53:39 51°10.612 2°39.671 9.9771 3.499988 30.480489 -2.871232
2007-04-10 07:53:44 51°10.608 2°39.642 9.9821 3.500092 30.482274 -2.871232
2007-04-10 07:53:49 51°10.604 2°39.613 9.9857 3.500092 30.482274 -2.871232
2007-04-10 07:53:54 51°10.6 2°39.584 9.987 3.500299 30.484276 -2.871232
2007-04-10 07:53:59 51°10.596 2°39.554 9.9884 3.500713 30.485926 -2.871232
2007-04-10 07:54:04 51°10.591 2°39.525 9.9884 3.501231 30.487794 -2.871232
2007-04-10 07:54:09 51°10.587 2°39.496 9.9893 3.502059 30.49031 -2.871232
2007-04-10 07:54:14 51°10.583 2°39.467 9.9897 3.502888 30.492827 -2.871232
2007-04-10 07:54:19 51°10.578 2°39.438 9.9898 3.502888 30.492827 -2.871232
2007-04-10 07:54:24 51°10.575 2°39.409 9.9915 3.503613 30.495126 -2.871232
2007-04-10 07:54:29 51°10.571 2°39.379 9.9903 3.504234 30.497208 -2.871232
2007-04-10 07:54:34 51°10.568 2°39.35 9.9898 3.504855 30.500858 -2.871232
2007-04-10 07:54:39 51°10.564 2°39.321 9.9868 3.505063 30.502074 -2.871232
2007-04-10 07:54:44 51°10.561 2°39.291 9.9877 3.505373 30.503507 -2.871232
2007-04-10 07:54:49 51°10.558 2°39.262 9.9883 3.505373 30.503507 -2.871232
2007-04-10 07:54:54 51°10.554 2°39.232 9.9847 3.505684 30.505723 -2.871232
2007-04-10 07:54:59 51°10.551 2°39.203 9.9867 3.505787 30.50594 -2.871232
2007-04-10 07:55:04 51°10.548 2°39.174 9.9884 3.505995 30.50794 -2.871232
2007-04-10 07:55:09 51°10.544 2°39.145 9.9886 3.505995 30.50794 -2.871232
2007-04-10 07:55:14 51°10.541 2°39.115 9.993 3.505995 30.50794 -2.871232
2007-04-10 07:55:19 51°10.538 2°39.086 9.9955 3.505995 30.50794 -2.871232
2007-04-10 07:55:24 51°10.534 2°39.057 9.9976 3.505995 30.508724 -2.871232
2007-04-10 07:55:29 51°10.531 2°39.027 9.9989 3.506098 30.509724 -2.871232
2007-04-10 07:55:34 51°10.527 2°38.998 9.9991 3.505891 30.508508 -2.871232
2007-04-10 07:55:39 51°10.524 2°38.969 10.001 3.506098 30.510508 -2.871232
2007-04-10 07:55:44 51°10.521 2°38.939 9.9995 3.506202 30.50994 -2.871232
2007-04-10 07:55:49 51°10.518 2°38.91 10.002 3.506202 30.50994 -2.871232
2007-04-10 07:55:54 51°10.514 2°38.88 10.002 3.506512 30.510588 -2.871232
2007-04-10 07:55:59 51°10.511 2°38.851 10.0034 3.506616 30.509237 -2.871232
2007-04-10 07:56:04 51°10.507 2°38.822 10.0027 3.506927 30.510669 -2.871232
2007-04-10 07:56:09 51°10.504 2°38.792 10.0044 3.50703 30.510101 -2.871232
2007-04-10 07:56:14 51°10.501 2°38.763 10.0029 3.507134 30.510317 -2.871232
2007-04-10 07:56:19 51°10.497 2°38.733 10.0039 3.507134 30.510317 -2.871232
2007-04-10 07:56:24 51°10.494 2°38.704 10.0007 3.507237 30.510533 -2.871232
2007-04-10 07:56:29 51°10.49 2°38.675 10.0014 3.507341 30.510749 -2.871232
2007-04-10 07:56:34 51°10.486 2°38.645 9.9998 3.507444 30.510965 -2.871232
2007-04-10 07:56:39 51°10.483 2°38.616 10 3.507548 30.511181 -2.871232
2007-04-10 07:56:44 51°10.479 2°38.586 9.9967 3.507548 30.511181 -2.871232
2007-04-10 07:56:49 51°10.476 2°38.557 9.9955 3.507548 30.511181 -2.871232
2007-04-10 07:56:54 51°10.472 2°38.527 9.9951 3.507548 30.511181 -2.871232
2007-04-10 07:56:59 51°10.469 2°38.498 9.9939 3.507651 30.512181 -2.871232
2007-04-10 07:57:04 51°10.465 2°38.468 9.9922 3.507548 30.511965 -2.871232
2007-04-10 07:57:09 51°10.461 2°38.439 9.9898 3.507548 30.512749 -2.871232
2007-04-10 07:57:14 51°10.458 2°38.409 9.9856 3.507548 30.513533 -2.871232
2007-04-10 07:57:19 51°10.455 2°38.379 9.985 3.507548 30.513533 -2.871232
2007-04-10 07:57:24 51°10.451 2°38.35 9.9851 3.507444 30.514101 -2.871232
2007-04-10 07:57:29 51°10.448 2°38.32 9.9816 3.507341 30.514669 -2.871232
2007-04-10 07:57:34 51°10.445 2°38.291 9.9817 3.507237 30.514453 -2.871232
2007-04-10 07:57:39 51°10.441 2°38.261 9.9798 3.507134 30.514237 -2.871232
2007-04-10 07:57:44 51°10.437 2°38.232 9.9809 3.50703 30.516373 -2.871232
2007-04-10 07:57:49 51°10.434 2°38.202 9.9827 3.50703 30.516373 -2.871232
2007-04-10 07:57:54 51°10.43 2°38.172 9.9836 3.506823 30.516725 -2.871232
2007-04-10 07:57:59 51°10.427 2°38.143 9.9845 3.506823 30.51751 -2.871232
2007-04-10 07:58:04 51°10.423 2°38.113 9.9855 3.50672 30.518863 -2.871232
2007-04-10 07:58:10 51°10.419 2°38.078 9.9876 3.506616 30.519431 -2.871232
2007-04-10 07:58:14 51°10.416 2°38.054 9.988 3.506616 30.519431 -2.871232
2007-04-10 07:58:19 51°10.413 2°38.024 9.9889 3.506616 30.519431 -2.871232
2007-04-10 07:58:24 51°10.409 2°37.995 9.9896 3.506616 30.519431 -2.871232
2007-04-10 07:58:29 51°10.405 2°37.965 9.9911 3.506823 30.521432 -2.871232
2007-04-10 07:58:34 51°10.403 2°37.935 9.991 3.50703 30.521864 -2.871232
2007-04-10 07:58:39 51°10.399 2°37.906 9.9937 3.507134 30.522079 -2.871232
2007-04-10 07:58:44 51°10.395 2°37.876 9.9944 3.507444 30.522727 -2.871232
2007-04-10 07:58:49 51°10.392 2°37.846 9.993 3.507444 30.522727 -2.871232
2007-04-10 07:58:54 51°10.389 2°37.817 9.9962 3.507548 30.523727 -2.871232
2007-04-10 07:58:59 51°10.385 2°37.788 9.9953 3.507755 30.524943 -2.871232
2007-04-10 07:59:04 51°10.382 2°37.758 9.9955 3.507962 30.526159 -2.871232
2007-04-10 07:59:09 51°10.378 2°37.728 9.9914 3.508066 30.526375 -2.871232
2007-04-10 07:59:14 51°10.375 2°37.699 9.9873 3.508273 30.526806 -2.871232
2007-04-10 07:59:19 51°10.371 2°37.67 9.9914 3.508273 30.526806 -2.871232
2007-04-10 07:59:24 51°10.367 2°37.64 9.9862 3.508377 30.527806 -2.871232
2007-04-10 07:59:29 51°10.364 2°37.611 9.9854 3.50848 30.528022 -2.871232
2007-04-10 07:59:34 51°10.36 2°37.581 9.9866 3.508687 30.529238 -2.871232
2007-04-10 07:59:39 51°10.357 2°37.552 9.9821 3.508791 30.530238 -2.871232
2007-04-10 07:59:44 51°10.353 2°37.522 9.9829 3.508791 30.532592 -2.871232
2007-04-10 07:59:49 51°10.35 2°37.493 9.9851 3.508791 30.532592 -2.871232
2007-04-10 07:59:54 51°10.347 2°37.463 9.9861 3.508687 30.533161 -2.871232
2007-04-10 07:59:59 51°10.344 2°37.434 9.9849 3.508687 30.53473 -2.871232
2007-04-10 08:00:04 51°10.341 2°37.404 9.9838 3.508584 30.534515 -2.871232
2007-04-10 08:00:09 51°10.339 2°37.374 9.9856 3.508584 30.535299 -2.871232
2007-04-10 08:00:14 51°10.337 2°37.344 9.9823 3.50848 30.535869 -2.871232
2007-04-10 08:00:19 51°10.335 2°37.314 9.9836 3.50848 30.535869 -2.871232
2007-04-10 08:00:24 51°10.332 2°37.284 9.9827 3.508377 30.534083 -2.871232
2007-04-10 08:00:29 51°10.33 2°37.254 9.9851 3.508377 30.534083 -2.871232
2007-04-10 08:00:34 51°10.329 2°37.224 9.9834 3.508377 30.534083 -2.871232
2007-04-10 08:00:39 51°10.326 2°37.195 9.9856 3.508377 30.534083 -2.871232
2007-04-10 08:00:44 51°10.325 2°37.165 9.9864 3.508273 30.533868 -2.871232
2007-04-10 08:00:49 51°10.322 2°37.135 9.988 3.508273 30.533868 -2.871232
2007-04-10 08:00:54 51°10.32 2°37.105 9.9894 3.508169 30.532867 -2.871232
2007-04-10 08:00:59 51°10.318 2°37.075 9.9895 3.508066 30.532652 -2.871232
2007-04-10 08:01:04 51°10.316 2°37.045 9.9915 3.508066 30.532652 -2.871232
2007-04-10 08:01:09 51°10.314 2°37.015 9.9914 3.508066 30.532652 -2.871232
2007-04-10 08:01:14 51°10.312 2°36.985 9.9919 3.508169 30.532083 -2.871232
2007-04-10 08:01:19 51°10.31 2°36.955 9.9918 3.508169 30.532083 -2.871232
2007-04-10 08:01:24 51°10.308 2°36.925 9.9919 3.508169 30.532083 -2.871232
2007-04-10 08:01:29 51°10.307 2°36.895 9.99 3.508273 30.531514 -2.871232
2007-04-10 08:01:34 51°10.307 2°36.865 9.9904 3.50848 30.53273 -2.871232
2007-04-10 08:01:39 51°10.308 2°36.834 9.9845 3.508687 30.533161 -2.871232
2007-04-10 08:01:44 51°10.309 2°36.805 9.9848 3.508894 30.534377 -2.871232
2007-04-10 08:01:49 51°10.311 2°36.775 9.9825 3.508894 30.534377 -2.871232
2007-04-10 08:01:54 51°10.313 2°36.745 9.9773 3.509101 30.534808 -2.871232
2007-04-10 08:01:59 51°10.315 2°36.715 9.9779 3.509205 30.535808 -2.871232
2007-04-10 08:02:04 51°10.319 2°36.685 9.9756 3.509309 30.537593 -2.871232
2007-04-10 08:02:09 51°10.323 2°36.656 9.9737 3.509309 30.538378 -2.871232
2007-04-10 08:02:14 51°10.328 2°36.627 9.9719 3.509102 30.538731 -2.871232
2007-04-10 08:02:19 51°10.333 2°36.599 9.9726 3.509102 30.538731 -2.871232
2007-04-10 08:02:24 51°10.339 2°36.57 9.9738 3.508998 30.540086 -2.871232
2007-04-10 08:02:29 51°10.346 2°36.542 9.9716 3.508894 30.540655 -2.871232
2007-04-10 08:02:34 51°10.354 2°36.516 9.9742 3.508894 30.54144 -2.871232
2007-04-10 08:02:39 51°10.363 2°36.49 9.9653 3.508687 30.541795 -2.871232
2007-04-10 08:02:44 51°10.373 2°36.466 9.9694 3.508687 30.54258 -2.871232
2007-04-10 08:02:49 51°10.384 2°36.441 9.9693 3.508687 30.54258 -2.871232
2007-04-10 08:02:54 51°10.395 2°36.419 9.968 3.508687 30.54415 -2.871232
2007-04-10 08:02:59 51°10.408 2°36.399 9.9703 3.508687 30.544935 -2.871232
2007-04-10 08:03:04 51°10.422 2°36.38 9.962 3.508687 30.544935 -2.871232
2007-04-10 08:03:09 51°10.436 2°36.362 9.9557 3.508584 30.54472 -2.871232
2007-04-10 08:03:14 51°10.452 2°36.347 9.9481 3.50848 30.54529 -2.871232
2007-04-10 08:03:19 51°10.468 2°36.333 9.9441 3.50848 30.54529 -2.871232
2007-04-10 08:03:24 51°10.484 2°36.32 9.9399 3.50848 30.54529 -2.871232
2007-04-10 08:03:29 51°10.501 2°36.309 9.9318 3.508584 30.547862 -2.871232
2007-04-10 08:03:34 51°10.518 2°36.299 9.9317 3.509102 30.552865 -2.871232
2007-04-10 08:03:39 51°10.536 2°36.293 9.9279 3.50993 30.564801 -2.871232
2007-04-10 08:03:44 51°10.554 2°36.288 9.9247 3.510966 30.578743 -2.871232
2007-04-10 08:03:49 51°10.573 2°36.285 9.9245 3.510966 30.578743 -2.871232
2007-04-10 08:03:54 51°10.591 2°36.284 9.922 3.512002 30.59505 -2.871232
2007-04-10 08:03:59 51°10.61 2°36.286 9.9253 3.512934 30.608787 -2.871232
2007-04-10 08:04:04 51°10.628 2°36.288 9.9205 3.513866 30.622529 -2.871232
2007-04-10 08:04:09 51°10.646 2°36.291 9.9238 3.514695 30.635274 -2.871232
2007-04-10 08:04:14 51°10.665 2°36.296 9.9291 3.515523 30.647234 -2.871232